Wetterdaten: Samstag, 01.01.2022
Datum Zeit Temp. Aussen Temp. o. S. Temp +5cm Feuchte Auss Luftdruck Regen Sonnenschein Regendauer Solar Windben Empfang
01.01.2022 00:00 13,0 C 12,2 C 9,4 C 93 % 1023,8 hPa 0,0 l/m 0 min 0 min 0 W/m 6,4 km/h (2 Bft) 100,00 %
01.01.2022 00:02 12,9 C 12,2 C 9,4 C 93 % 1023,8 hPa 0,0 l/m 0 min 0 min 0 W/m 12,9 km/h (3 Bft) 100,00 %
01.01.2022 00:04 13,0 C 12,2 C 9,4 C 93 % 1023,8 hPa 0,0 l/m 0 min 0 min 0 W/m 22,5 km/h (4 Bft) 95,74 %
01.01.2022 00:08 13,0 C 12,2 C 9,4 C 93 % 1023,9 hPa 0,0 l/m 0 min 0 min 0 W/m 12,9 km/h (3 Bft) 98,11 %
01.01.2022 00:10 13,0 C 12,2 C 9,4 C 93 % 1023,9 hPa 0,0 l/m 0 min 0 min 0 W/m 22,5 km/h (4 Bft) 97,87 %
01.01.2022 00:12 13,0 C 12,2 C 9,4 C 93 % 1023,9 hPa 0,0 l/m 0 min 0 min 0 W/m 12,9 km/h (3 Bft) 100,00 %
01.01.2022 00:14 13,0 C 12,2 C 9,4 C 93 % 1023,9 hPa 0,0 l/m 0 min 0 min 0 W/m 12,9 km/h (3 Bft) 100,00 %
01.01.2022 00:16 13,0 C 12,2 C 9,4 C 93 % 1023,9 hPa 0,0 l/m 0 min 0 min 0 W/m 16,1 km/h (3 Bft) 98,31 %
01.01.2022 00:18 13,0 C 12,2 C 9,4 C 93 % 1023,9 hPa 0,0 l/m 0 min 0 min 0 W/m 16,1 km/h (3 Bft) 100,00 %
01.01.2022 00:20 13,0 C 12,2 C 9,4 C 93 % 1023,9 hPa 0,0 l/m 0 min 0 min 0 W/m 12,9 km/h (3 Bft) 100,00 %
01.01.2022 00:22 13,0 C 12,2 C 9,4 C 93 % 1023,9 hPa 0,0 l/m 0 min 0 min 0 W/m 16,1 km/h (3 Bft) 98,28 %
01.01.2022 00:24 13,0 C 12,2 C 9,4 C 93 % 1023,9 hPa 0,0 l/m 0 min 0 min 0 W/m 12,9 km/h (3 Bft) 100,00 %
01.01.2022 00:26 13,0 C 12,2 C 9,4 C 93 % 1023,8 hPa 0,0 l/m 0 min 0 min 0 W/m 16,1 km/h (3 Bft) 100,00 %
01.01.2022 00:28 13,0 C 12,2 C 9,4 C 93 % 1023,9 hPa 0,0 l/m 0 min 0 min 0 W/m 12,9 km/h (3 Bft) 97,87 %
01.01.2022 00:30 13,0 C 12,2 C 9,4 C 93 % 1023,8 hPa 0,0 l/m 0 min 0 min 0 W/m 12,9 km/h (3 Bft) 97,87 %
01.01.2022 00:32 13,0 C 12,2 C 9,4 C 93 % 1023,8 hPa 0,0 l/m 0 min 0 min 0 W/m 12,9 km/h (3 Bft) 100,00 %
01.01.2022 00:34 13,0 C 12,2 C 9,4 C 93 % 1023,7 hPa 0,0 l/m 0 min 0 min 0 W/m 12,9 km/h (3 Bft) 100,00 %
01.01.2022 00:36 13,0 C 12,2 C 9,4 C 93 % 1023,7 hPa 0,0 l/m 0 min 0 min 0 W/m 22,5 km/h (4 Bft) 100,00 %
01.01.2022 00:38 13,0 C 12,2 C 9,4 C 93 % 1023,7 hPa 0,0 l/m 0 min 0 min 0 W/m 12,9 km/h (3 Bft) 100,00 %
01.01.2022 00:40 13,0 C 12,2 C 9,4 C 93 % 1023,7 hPa 0,0 l/m 0 min 0 min 0 W/m 22,5 km/h (4 Bft) 100,00 %
01.01.2022 00:42 13,0 C 12,2 C 9,4 C 93 % 1023,7 hPa 0,0 l/m 0 min 0 min 0 W/m 12,9 km/h (3 Bft) 100,00 %
01.01.2022 00:44 13,0 C 12,2 C 9,4 C 93 % 1023,8 hPa 0,0 l/m 0 min 0 min 0 W/m 19,3 km/h (3 Bft) 100,00 %
01.01.2022 00:46 13,1 C 12,2 C 9,4 C 93 % 1023,7 hPa 0,0 l/m 0 min 0 min 0 W/m 12,9 km/h (3 Bft) 100,00 %
01.01.2022 00:48 13,1 C 12,2 C 9,4 C 93 % 1023,8 hPa 0,0 l/m 0 min 0 min 0 W/m 12,9 km/h (3 Bft) 100,00 %
01.01.2022 00:50 13,0 C 12,2 C 9,4 C 93 % 1023,7 hPa 0,0 l/m 0 min 0 min 0 W/m 9,7 km/h (2 Bft) 97,87 %
01.01.2022 00:52 13,1 C 12,2 C 9,4 C 93 % 1023,7 hPa 0,0 l/m 0 min 0 min 0 W/m 9,7 km/h (2 Bft) 100,00 %
01.01.2022 00:54 13,0 C 12,2 C 9,4 C 93 % 1023,8 hPa 0,0 l/m 0 min 0 min 0 W/m 6,4 km/h (2 Bft) 100,00 %
01.01.2022 00:56 13,0 C 12,2 C 9,4 C 93 % 1023,7 hPa 0,0 l/m 0 min 0 min 0 W/m 9,7 km/h (2 Bft) 100,00 %
01.01.2022 00:58 13,0 C 12,2 C 9,4 C 93 % 1023,7 hPa 0,0 l/m 0 min 0 min 0 W/m 12,9 km/h (3 Bft) 100,00 %
01.01.2022 01:00 13,0 C 12,2 C 9,4 C 93 % 1023,7 hPa 0,0 l/m 0 min 0 min 0 W/m 9,7 km/h (2 Bft) 97,87 %
01.01.2022 01:02 13,0 C 12,2 C 9,4 C 93 % 1023,7 hPa 0,0 l/m 0 min 0 min 0 W/m 9,7 km/h (2 Bft) 97,87 %
01.01.2022 01:04 13,0 C 12,2 C 9,4 C 93 % 1023,7 hPa 0,0 l/m 0 min 0 min 0 W/m 9,7 km/h (2 Bft) 95,74 %
01.01.2022 01:06 13,0 C 12,2 C 9,4 C 93 % 1023,7 hPa 0,0 l/m 0 min 0 min 0 W/m 16,1 km/h (3 Bft) 97,83 %
01.01.2022 01:08 13,0 C 12,2 C 9,4 C 93 % 1023,7 hPa 0,0 l/m 0 min 0 min 0 W/m 22,5 km/h (4 Bft) 95,74 %
01.01.2022 01:10 13,0 C 12,2 C 9,4 C 93 % 1023,8 hPa 0,0 l/m 0 min 0 min 0 W/m 12,9 km/h (3 Bft) 97,87 %
01.01.2022 01:12 13,0 C 12,2 C 9,4 C 93 % 1023,8 hPa 0,0 l/m 0 min 0 min 0 W/m 12,9 km/h (3 Bft) 97,87 %
01.01.2022 01:14 13,0 C 12,2 C 9,4 C 93 % 1023,8 hPa 0,0 l/m 0 min 0 min 0 W/m 9,7 km/h (2 Bft) 97,87 %
01.01.2022 01:16 13,0 C 12,2 C 9,4 C 93 % 1023,8 hPa 0,0 l/m 0 min 0 min 0 W/m 16,1 km/h (3 Bft) 97,87 %
01.01.2022 01:18 13,0 C 12,2 C 9,4 C 93 % 1023,8 hPa 0,0 l/m 0 min 0 min 0 W/m 6,4 km/h (2 Bft) 97,87 %
01.01.2022 01:20 13,0 C 12,2 C 9,4 C 93 % 1023,8 hPa 0,0 l/m 0 min 0 min 0 W/m 12,9 km/h (3 Bft) 95,65 %
01.01.2022 01:22 13,0 C 12,2 C 9,4 C 93 % 1023,9 hPa 0,0 l/m 0 min 0 min 0 W/m 12,9 km/h (3 Bft) 95,74 %
01.01.2022 01:24 13,0 C 12,2 C 9,4 C 93 % 1023,9 hPa 0,0 l/m 0 min 0 min 0 W/m 16,1 km/h (3 Bft) 95,74 %
01.01.2022 01:26 13,0 C 12,2 C 9,4 C 93 % 1023,9 hPa 0,0 l/m 0 min 0 min 0 W/m 16,1 km/h (3 Bft) 95,74 %
01.01.2022 01:28 13,0 C 12,2 C 9,4 C 93 % 1023,9 hPa 0,0 l/m 0 min 0 min 0 W/m 22,5 km/h (4 Bft) 95,74 %
01.01.2022 01:30 13,0 C 12,2 C 9,4 C 93 % 1023,9 hPa 0,0 l/m 0 min 0 min 0 W/m 16,1 km/h (3 Bft) 93,48 %
01.01.2022 01:32 12,9 C 12,2 C 9,4 C 93 % 1023,9 hPa 0,0 l/m 0 min 0 min 0 W/m 9,7 km/h (2 Bft) 95,74 %
01.01.2022 01:34 12,9 C 12,2 C 9,4 C 93 % 1023,9 hPa 0,0 l/m 0 min 0 min 0 W/m 9,7 km/h (2 Bft) 95,74 %
01.01.2022 01:36 12,9 C 12,2 C 9,4 C 93 % 1024,0 hPa 0,0 l/m 0 min 0 min 0 W/m 16,1 km/h (3 Bft) 95,74 %
01.01.2022 01:38 13,0 C 12,2 C 9,4 C 93 % 1024,0 hPa 0,0 l/m 0 min 0 min 0 W/m 12,9 km/h (3 Bft) 95,74 %
01.01.2022 01:40 12,9 C 12,2 C 9,4 C 94 % 1023,9 hPa 0,0 l/m 0 min 0 min 0 W/m 9,7 km/h (2 Bft) 97,87 %
01.01.2022 01:42 12,9 C 12,2 C 9,4 C 94 % 1024,0 hPa 0,0 l/m 0 min 0 min 0 W/m 16,1 km/h (3 Bft) 97,83 %
01.01.2022 01:44 12,9 C 12,2 C 9,4 C 94 % 1024,0 hPa 0,0 l/m 0 min 0 min 0 W/m 12,9 km/h (3 Bft) 97,87 %
01.01.2022 01:46 12,9 C 12,2 C 9,4 C 94 % 1024,0 hPa 0,0 l/m 0 min 0 min 0 W/m 12,9 km/h (3 Bft) 95,74 %
01.01.2022 01:48 12,9 C 12,2 C 9,4 C 94 % 1024,0 hPa 0,0 l/m 0 min 0 min 0 W/m 9,7 km/h (2 Bft) 95,74 %
01.01.2022 01:50 12,9 C 12,2 C 9,4 C 94 % 1023,9 hPa 0,0 l/m 0 min 0 min 0 W/m 12,9 km/h (3 Bft) 97,87 %
01.01.2022 01:52 12,9 C 12,2 C 9,4 C 94 % 1023,9 hPa 0,0 l/m 0 min 0 min 0 W/m 9,7 km/h (2 Bft) 95,74 %
01.01.2022 01:54 12,9 C 12,2 C 9,4 C 94 % 1024,0 hPa 0,0 l/m 0 min 0 min 0 W/m 16,1 km/h (3 Bft) 95,65 %
01.01.2022 01:56 12,9 C 12,2 C 9,4 C 94 % 1024,0 hPa 0,0 l/m 0 min 0 min 0 W/m 12,9 km/h (3 Bft) 93,62 %
01.01.2022 01:58 13,0 C 12,2 C 9,4 C 94 % 1024,0 hPa 0,0 l/m 0 min 0 min 0 W/m 16,1 km/h (3 Bft) 95,74 %
01.01.2022 02:00 13,0 C 12,2 C 9,4 C 94 % 1024,0 hPa 0,0 l/m 0 min 0 min 0 W/m 12,9 km/h (3 Bft) 95,74 %
01.01.2022 02:02 12,9 C 12,2 C 9,4 C 94 % 1024,0 hPa 0,0 l/m 0 min 0 min 0 W/m 6,4 km/h (2 Bft) 97,87 %
01.01.2022 02:04 12,9 C 12,2 C 9,4 C 94 % 1024,1 hPa 0,0 l/m 0 min 0 min 0 W/m 9,7 km/h (2 Bft) 94,29 %
01.01.2022 02:06 12,9 C 12,2 C 9,4 C 94 % 1024,1 hPa 0,0 l/m 0 min 0 min 0 W/m 6,4 km/h (2 Bft) 91,38 %
01.01.2022 02:08 12,9 C 12,2 C 9,4 C 94 % 1024,1 hPa 0,0 l/m 0 min 0 min 0 W/m 12,9 km/h (3 Bft) 97,87 %
01.01.2022 02:10 12,9 C 12,2 C 9,4 C 94 % 1024,1 hPa 0,0 l/m 0 min 0 min 0 W/m 12,9 km/h (3 Bft) 97,87 %
01.01.2022 02:12 12,9 C 12,2 C 9,4 C 94 % 1024,1 hPa 0,0 l/m 0 min 0 min 0 W/m 12,9 km/h (3 Bft) 95,74 %
01.01.2022 02:14 12,9 C 12,2 C 9,4 C 94 % 1024,1 hPa 0,0 l/m 0 min 0 min 0 W/m 12,9 km/h (3 Bft) 95,74 %
01.01.2022 02:16 12,9 C 12,2 C 9,4 C 94 % 1024,0 hPa 0,0 l/m 0 min 0 min 0 W/m 12,9 km/h (3 Bft) 95,74 %
01.01.2022 02:18 12,9 C 12,2 C 9,4 C 94 % 1024,1 hPa 0,0 l/m 0 min 0 min 0 W/m 16,1 km/h (3 Bft) 97,83 %
01.01.2022 02:20 12,9 C 12,2 C 9,4 C 94 % 1024,1 hPa 0,0 l/m 0 min 0 min 0 W/m 12,9 km/h (3 Bft) 97,87 %
01.01.2022 02:22 12,9 C 12,2 C 9,4 C 94 % 1024,1 hPa 0,0 l/m 0 min 0 min 0 W/m 9,7 km/h (2 Bft) 93,62 %
01.01.2022 02:24 12,9 C 12,2 C 9,4 C 94 % 1024,1 hPa 0,0 l/m 0 min 0 min 0 W/m 9,7 km/h (2 Bft) 95,74 %
01.01.2022 02:26 12,9 C 12,2 C 9,4 C 94 % 1024,1 hPa 0,0 l/m 0 min 0 min 0 W/m 6,4 km/h (2 Bft) 97,87 %
01.01.2022 02:28 12,9 C 12,2 C 9,4 C 94 % 1024,0 hPa 0,0 l/m 0 min 0 min 0 W/m 9,7 km/h (2 Bft) 95,74 %
01.01.2022 02:30 12,9 C 12,2 C 9,4 C 94 % 1024,0 hPa 0,0 l/m 0 min 0 min 0 W/m 3,2 km/h (1 Bft) 97,83 %
01.01.2022 02:32 12,9 C 12,2 C 9,4 C 94 % 1024,1 hPa 0,0 l/m 0 min 0 min 0 W/m 12,9 km/h (3 Bft) 97,87 %
01.01.2022 02:34 12,9 C 12,2 C 9,4 C 94 % 1024,0 hPa 0,0 l/m 0 min 0 min 0 W/m 19,3 km/h (3 Bft) 97,87 %
01.01.2022 02:36 12,9 C 12,2 C 9,4 C 94 % 1024,0 hPa 0,0 l/m 0 min 0 min 0 W/m 6,4 km/h (2 Bft) 97,14 %
01.01.2022 02:38 12,9 C 12,2 C 9,4 C 94 % 1024,1 hPa 0,0 l/m 0 min 0 min 0 W/m 12,9 km/h (3 Bft) 96,61 %
01.01.2022 02:40 12,9 C 12,2 C 9,4 C 94 % 1024,1 hPa 0,0 l/m 0 min 0 min 0 W/m 3,2 km/h (1 Bft) 100,00 %
01.01.2022 02:42 12,9 C 12,2 C 9,4 C 94 % 1024,1 hPa 0,0 l/m 0 min 0 min 0 W/m 6,4 km/h (2 Bft) 100,00 %
01.01.2022 02:44 12,9 C 12,2 C 9,4 C 94 % 1024,1 hPa 0,0 l/m 0 min 0 min 0 W/m 6,4 km/h (2 Bft) 97,87 %
01.01.2022 02:46 12,8 C 12,2 C 9,4 C 94 % 1024,1 hPa 0,0 l/m 0 min 0 min 0 W/m 12,9 km/h (3 Bft) 100,00 %
01.01.2022 02:48 12,8 C 12,2 C 9,4 C 94 % 1024,1 hPa 0,0 l/m 0 min 0 min 0 W/m 12,9 km/h (3 Bft) 100,00 %
01.01.2022 02:50 12,8 C 12,2 C 9,4 C 93 % 1024,1 hPa 0,0 l/m 0 min 0 min 0 W/m 12,9 km/h (3 Bft) 100,00 %
01.01.2022 02:52 12,8 C 12,2 C 9,4 C 93 % 1024,1 hPa 0,0 l/m 0 min 0 min 0 W/m 16,1 km/h (3 Bft) 97,87 %
01.01.2022 02:54 12,8 C 12,2 C 9,4 C 93 % 1024,1 hPa 0,0 l/m 0 min 0 min 0 W/m 6,4 km/h (2 Bft) 100,00 %
01.01.2022 02:56 12,8 C 12,2 C 9,4 C 93 % 1024,2 hPa 0,0 l/m 0 min 0 min 0 W/m 12,9 km/h (3 Bft) 100,00 %
01.01.2022 02:58 12,8 C 12,2 C 9,4 C 93 % 1024,2 hPa 0,0 l/m 0 min 0 min 0 W/m 12,9 km/h (3 Bft) 100,00 %
01.01.2022 03:00 12,8 C 12,2 C 9,4 C 93 % 1024,2 hPa 0,0 l/m 0 min 0 min 0 W/m 9,7 km/h (2 Bft) 100,00 %
01.01.2022 03:02 12,8 C 12,2 C 9,4 C 93 % 1024,2 hPa 0,0 l/m 0 min 0 min 0 W/m 12,9 km/h (3 Bft) 97,87 %
01.01.2022 03:04 12,9 C 12,2 C 9,4 C 93 % 1024,3 hPa 0,0 l/m 0 min 0 min 0 W/m 12,9 km/h (3 Bft) 53,49 %
01.01.2022 03:06 12,9 C 12,2 C 9,4 C 93 % 1024,3 hPa 0,0 l/m 0 min 0 min 0 W/m 6,4 km/h (2 Bft) 97,87 %
01.01.2022 03:08 12,9 C 12,2 C 9,4 C 93 % 1024,3 hPa 0,0 l/m 0 min 0 min 0 W/m 9,7 km/h (2 Bft) 97,83 %
01.01.2022 03:10 12,9 C 12,2 C 9,4 C 93 % 1024,3 hPa 0,0 l/m 0 min 0 min 0 W/m 6,4 km/h (2 Bft) 95,74 %
01.01.2022 03:12 12,9 C 12,2 C 9,4 C 93 % 1024,2 hPa 0,0 l/m 0 min 0 min 0 W/m 6,4 km/h (2 Bft) 97,87 %
01.01.2022 03:14 12,9 C 12,2 C 9,4 C 93 % 1024,2 hPa 0,0 l/m 0 min 0 min 0 W/m 9,7 km/h (2 Bft) 97,87 %
01.01.2022 03:16 12,9 C 12,2 C 9,4 C 93 % 1024,3 hPa 0,0 l/m 0 min 0 min 0 W/m 12,9 km/h (3 Bft) 97,87 %
01.01.2022 03:18 12,9 C 12,2 C 9,4 C 93 % 1024,3 hPa 0,0 l/m 0 min 0 min 0 W/m 9,7 km/h (2 Bft) 95,74 %
01.01.2022 03:20 12,9 C 12,2 C 9,4 C 93 % 1024,2 hPa 0,0 l/m 0 min 0 min 0 W/m 12,9 km/h (3 Bft) 97,87 %
01.01.2022 03:22 12,9 C 12,2 C 9,4 C 93 % 1024,2 hPa 0,0 l/m 0 min 0 min 0 W/m 9,7 km/h (2 Bft) 97,83 %
01.01.2022 03:24 12,9 C 12,2 C 9,4 C 93 % 1024,2 hPa 0,0 l/m 0 min 0 min 0 W/m 12,9 km/h (3 Bft) 97,87 %
01.01.2022 03:26 12,9 C 12,2 C 9,4 C 93 % 1024,2 hPa 0,0 l/m 0 min 0 min 0 W/m 12,9 km/h (3 Bft) 95,74 %
01.01.2022 03:28 12,9 C 12,2 C 9,4 C 92 % 1024,2 hPa 0,0 l/m 0 min 0 min 0 W/m 9,7 km/h (2 Bft) 97,87 %
01.01.2022 03:30 12,9 C 12,2 C 9,4 C 92 % 1024,2 hPa 0,0 l/m 0 min 0 min 0 W/m 6,4 km/h (2 Bft) 97,87 %
01.01.2022 03:32 12,9 C 12,2 C 9,4 C 92 % 1024,2 hPa 0,0 l/m 0 min 0 min 0 W/m 12,9 km/h (3 Bft) 97,87 %
01.01.2022 03:34 12,8 C 12,2 C 9,4 C 92 % 1024,2 hPa 0,0 l/m 0 min 0 min 0 W/m 6,4 km/h (2 Bft) 97,83 %
01.01.2022 03:36 12,8 C 12,2 C 9,4 C 92 % 1024,2 hPa 0,0 l/m 0 min 0 min 0 W/m 3,2 km/h (1 Bft) 100,00 %
01.01.2022 03:38 12,8 C 12,2 C 9,4 C 92 % 1024,2 hPa 0,0 l/m 0 min 0 min 0 W/m 6,4 km/h (2 Bft) 100,00 %
01.01.2022 03:40 12,8 C 12,2 C 9,4 C 92 % 1024,2 hPa 0,0 l/m 0 min 0 min 0 W/m 6,4 km/h (2 Bft) 100,00 %
01.01.2022 03:42 12,8 C 12,2 C 9,4 C 92 % 1024,3 hPa 0,0 l/m 0 min 0 min 0 W/m 6,4 km/h (2 Bft) 100,00 %
01.01.2022 03:44 12,8 C 12,2 C 9,4 C 92 % 1024,2 hPa 0,0 l/m 0 min 0 min 0 W/m 6,4 km/h (2 Bft) 100,00 %
01.01.2022 03:46 12,8 C 12,2 C 9,4 C 92 % 1024,3 hPa 0,0 l/m 0 min 0 min 0 W/m 9,7 km/h (2 Bft) 100,00 %
01.01.2022 03:48 12,8 C 12,2 C 9,4 C 92 % 1024,3 hPa 0,0 l/m 0 min 0 min 0 W/m 3,2 km/h (1 Bft) 100,00 %
01.01.2022 03:50 12,8 C 12,2 C 9,4 C 92 % 1024,3 hPa 0,0 l/m 0 min 0 min 0 W/m 6,4 km/h (2 Bft) 100,00 %
01.01.2022 03:52 12,8 C 12,2 C 9,4 C 92 % 1024,4 hPa 0,0 l/m 0 min 0 min 0 W/m 6,4 km/h (2 Bft) 100,00 %
01.01.2022 03:54 12,8 C 12,2 C 9,4 C 92 % 1024,4 hPa 0,0 l/m 0 min 0 min 0 W/m 6,4 km/h (2 Bft) 100,00 %
01.01.2022 03:56 12,8 C 12,2 C 9,4 C 92 % 1024,3 hPa 0,0 l/m 0 min 0 min 0 W/m 6,4 km/h (2 Bft) 100,00 %
01.01.2022 03:58 12,8 C 12,2 C 9,4 C 92 % 1024,3 hPa 0,0 l/m 0 min 0 min 0 W/m 6,4 km/h (2 Bft) 100,00 %
01.01.2022 04:00 12,8 C 12,2 C 9,4 C 92 % 1024,4 hPa 0,0 l/m 0 min 0 min 0 W/m 6,4 km/h (2 Bft) 100,00 %
01.01.2022 04:02 12,8 C 12,2 C 9,4 C 92 % 1024,4 hPa 0,0 l/m 0 min 0 min 0 W/m 9,7 km/h (2 Bft) 100,00 %
01.01.2022 04:04 12,8 C 12,2 C 9,4 C 92 % 1024,4 hPa 0,0 l/m 0 min 0 min 0 W/m 6,4 km/h (2 Bft) 100,00 %
01.01.2022 04:06 12,7 C 12,2 C 9,4 C 92 % 1024,3 hPa 0,0 l/m 0 min 0 min 0 W/m 9,7 km/h (2 Bft) 100,00 %
01.01.2022 04:08 12,7 C 12,2 C 9,4 C 92 % 1024,3 hPa 0,0 l/m 0 min 0 min 0 W/m 6,4 km/h (2 Bft) 97,87 %
01.01.2022 04:10 12,8 C 12,2 C 9,4 C 92 % 1024,4 hPa 0,0 l/m 0 min 0 min 0 W/m 3,2 km/h (1 Bft) 97,14 %
01.01.2022 04:12 12,7 C 12,2 C 9,4 C 92 % 1024,4 hPa 0,0 l/m 0 min 0 min 0 W/m 3,2 km/h (1 Bft) 98,31 %
01.01.2022 04:14 12,7 C 12,2 C 9,4 C 92 % 1024,4 hPa 0,0 l/m 0 min 0 min 0 W/m 9,7 km/h (2 Bft) 95,74 %
01.01.2022 04:16 12,7 C 12,2 C 9,4 C 92 % 1024,4 hPa 0,0 l/m 0 min 0 min 0 W/m 6,4 km/h (2 Bft) 97,83 %
01.01.2022 04:18 12,7 C 12,2 C 9,4 C 92 % 1024,4 hPa 0,0 l/m 0 min 0 min 0 W/m 6,4 km/h (2 Bft) 97,22 %
01.01.2022 04:20 12,7 C 12,2 C 9,4 C 92 % 1024,4 hPa 0,0 l/m 0 min 0 min 0 W/m 9,7 km/h (2 Bft) 97,83 %
01.01.2022 04:22 12,7 C 12,2 C 9,4 C 92 % 1024,4 hPa 0,0 l/m 0 min 0 min 0 W/m 12,9 km/h (3 Bft) 97,87 %
01.01.2022 04:24 12,7 C 12,2 C 9,4 C 92 % 1024,4 hPa 0,0 l/m 0 min 0 min 0 W/m 22,5 km/h (4 Bft) 97,87 %
01.01.2022 04:26 12,7 C 12,2 C 9,4 C 92 % 1024,4 hPa 0,0 l/m 0 min 0 min 0 W/m 16,1 km/h (3 Bft) 95,74 %
01.01.2022 04:28 12,8 C 12,2 C 9,4 C 91 % 1024,4 hPa 0,0 l/m 0 min 0 min 0 W/m 16,1 km/h (3 Bft) 95,74 %
01.01.2022 04:30 12,8 C 12,2 C 9,4 C 91 % 1024,4 hPa 0,0 l/m 0 min 0 min 0 W/m 12,9 km/h (3 Bft) 97,87 %
01.01.2022 04:32 12,8 C 12,2 C 9,4 C 91 % 1024,3 hPa 0,0 l/m 0 min 0 min 0 W/m 12,9 km/h (3 Bft) 97,83 %
01.01.2022 04:34 12,8 C 12,2 C 9,4 C 91 % 1024,3 hPa 0,0 l/m 0 min 0 min 0 W/m 12,9 km/h (3 Bft) 95,74 %
01.01.2022 04:36 12,8 C 12,2 C 9,4 C 91 % 1024,3 hPa 0,0 l/m 0 min 0 min 0 W/m 12,9 km/h (3 Bft) 97,87 %
01.01.2022 04:38 12,8 C 12,2 C 9,4 C 91 % 1024,4 hPa 0,0 l/m 0 min 0 min 0 W/m 12,9 km/h (3 Bft) 95,74 %
01.01.2022 04:40 12,9 C 12,2 C 9,4 C 91 % 1024,3 hPa 0,0 l/m 0 min 0 min 0 W/m 12,9 km/h (3 Bft) 93,62 %
01.01.2022 04:42 12,9 C 12,2 C 9,4 C 90 % 1024,3 hPa 0,0 l/m 0 min 0 min 0 W/m 12,9 km/h (3 Bft) 93,62 %
01.01.2022 04:44 12,9 C 12,2 C 9,4 C 90 % 1024,2 hPa 0,0 l/m 0 min 0 min 0 W/m 12,9 km/h (3 Bft) 95,65 %
01.01.2022 04:46 12,9 C 12,2 C 9,4 C 90 % 1024,2 hPa 0,0 l/m 0 min 0 min 0 W/m 16,1 km/h (3 Bft) 93,62 %
01.01.2022 04:48 12,9 C 12,2 C 9,4 C 90 % 1024,1 hPa 0,0 l/m 0 min 0 min 0 W/m 16,1 km/h (3 Bft) 95,74 %
01.01.2022 04:50 12,9 C 12,2 C 9,4 C 90 % 1024,1 hPa 0,0 l/m 0 min 0 min 0 W/m 16,1 km/h (3 Bft) 95,74 %
01.01.2022 04:52 12,9 C 12,2 C 9,4 C 90 % 1024,1 hPa 0,0 l/m 0 min 0 min 0 W/m 16,1 km/h (3 Bft) 95,74 %
01.01.2022 04:54 12,9 C 12,2 C 9,4 C 90 % 1024,0 hPa 0,0 l/m 0 min 0 min 0 W/m 12,9 km/h (3 Bft) 95,74 %
01.01.2022 04:56 12,9 C 12,2 C 9,4 C 90 % 1024,1 hPa 0,0 l/m 0 min 0 min 0 W/m 12,9 km/h (3 Bft) 93,48 %
01.01.2022 04:58 12,9 C 12,2 C 9,4 C 90 % 1024,1 hPa 0,0 l/m 0 min 0 min 0 W/m 12,9 km/h (3 Bft) 97,87 %
01.01.2022 05:00 13,0 C 12,2 C 9,4 C 90 % 1024,1 hPa 0,0 l/m 0 min 0 min 0 W/m 12,9 km/h (3 Bft) 95,74 %
01.01.2022 05:02 13,0 C 12,2 C 9,4 C 90 % 1024,0 hPa 0,0 l/m 0 min 0 min 0 W/m 12,9 km/h (3 Bft) 91,49 %
01.01.2022 05:04 13,0 C 12,2 C 9,4 C 90 % 1024,1 hPa 0,0 l/m 0 min 0 min 0 W/m 16,1 km/h (3 Bft) 95,74 %
01.01.2022 05:06 13,0 C 12,2 C 9,4 C 90 % 1024,2 hPa 0,0 l/m 0 min 0 min 0 W/m 9,7 km/h (2 Bft) 95,74 %
01.01.2022 05:08 13,0 C 12,2 C 9,4 C 90 % 1024,1 hPa 0,0 l/m 0 min 0 min 0 W/m 9,7 km/h (2 Bft) 95,65 %
01.01.2022 05:10 13,0 C 12,2 C 9,4 C 90 % 1024,1 hPa 0,0 l/m 0 min 0 min 0 W/m 19,3 km/h (3 Bft) 95,74 %
01.01.2022 05:12 12,9 C 12,2 C 9,4 C 90 % 1024,1 hPa 0,0 l/m 0 min 0 min 0 W/m 12,9 km/h (3 Bft) 91,49 %
01.01.2022 05:14 13,0 C 12,2 C 9,4 C 90 % 1024,2 hPa 0,0 l/m 0 min 0 min 0 W/m 16,1 km/h (3 Bft) 93,62 %
01.01.2022 05:16 12,9 C 12,2 C 9,4 C 90 % 1024,1 hPa 0,0 l/m 0 min 0 min 0 W/m 16,1 km/h (3 Bft) 95,74 %
01.01.2022 05:18 12,9 C 12,2 C 9,4 C 91 % 1024,1 hPa 0,0 l/m 0 min 0 min 0 W/m 6,4 km/h (2 Bft) 93,62 %
01.01.2022 05:20 12,9 C 12,2 C 9,4 C 91 % 1024,1 hPa 0,0 l/m 0 min 0 min 0 W/m 16,1 km/h (3 Bft) 95,65 %
01.01.2022 05:22 12,9 C 12,2 C 9,4 C 91 % 1024,1 hPa 0,0 l/m 0 min 0 min 0 W/m 16,1 km/h (3 Bft) 93,62 %
01.01.2022 05:24 12,9 C 12,2 C 9,4 C 91 % 1024,1 hPa 0,0 l/m 0 min 0 min 0 W/m 12,9 km/h (3 Bft) 95,74 %
01.01.2022 05:26 12,9 C 12,2 C 9,4 C 91 % 1024,1 hPa 0,0 l/m 0 min 0 min 0 W/m 9,7 km/h (2 Bft) 97,87 %
01.01.2022 05:28 12,9 C 12,2 C 9,4 C 91 % 1024,0 hPa 0,0 l/m 0 min 0 min 0 W/m 16,1 km/h (3 Bft) 97,87 %
01.01.2022 05:30 12,9 C 12,2 C 9,4 C 91 % 1024,0 hPa 0,0 l/m 0 min 0 min 0 W/m 12,9 km/h (3 Bft) 97,83 %
01.01.2022 05:32 12,9 C 12,2 C 9,4 C 91 % 1024,0 hPa 0,0 l/m 0 min 0 min 0 W/m 6,4 km/h (2 Bft) 97,87 %
01.01.2022 05:34 12,9 C 12,2 C 9,4 C 91 % 1024,0 hPa 0,0 l/m 0 min 0 min 0 W/m 12,9 km/h (3 Bft) 97,87 %
01.01.2022 05:36 12,9 C 12,2 C 9,4 C 91 % 1024,0 hPa 0,0 l/m 0 min 0 min 0 W/m 9,7 km/h (2 Bft) 100,00 %
01.01.2022 05:38 12,9 C 12,2 C 9,4 C 91 % 1024,0 hPa 0,0 l/m 0 min 0 min 0 W/m 9,7 km/h (2 Bft) 100,00 %
01.01.2022 05:40 12,9 C 12,2 C 9,4 C 91 % 1024,0 hPa 0,0 l/m 0 min 0 min 0 W/m 19,3 km/h (3 Bft) 97,87 %
01.01.2022 05:42 12,9 C 12,2 C 9,4 C 91 % 1024,0 hPa 0,0 l/m 0 min 0 min 0 W/m 16,1 km/h (3 Bft) 97,83 %
01.01.2022 05:44 12,9 C 12,2 C 9,4 C 91 % 1024,1 hPa 0,0 l/m 0 min 0 min 0 W/m 6,4 km/h (2 Bft) 100,00 %
01.01.2022 05:46 12,9 C 12,2 C 9,4 C 91 % 1024,2 hPa 0,0 l/m 0 min 0 min 0 W/m 12,9 km/h (3 Bft) 97,87 %
01.01.2022 05:48 12,8 C 12,2 C 9,4 C 91 % 1024,2 hPa 0,0 l/m 0 min 0 min 0 W/m 12,9 km/h (3 Bft) 97,87 %
01.01.2022 05:50 12,8 C 12,2 C 9,4 C 91 % 1024,2 hPa 0,0 l/m 0 min 0 min 0 W/m 12,9 km/h (3 Bft) 97,87 %
01.01.2022 05:52 12,8 C 12,2 C 9,4 C 91 % 1024,2 hPa 0,0 l/m 0 min 0 min 0 W/m 12,9 km/h (3 Bft) 100,00 %
01.01.2022 05:54 12,8 C 12,2 C 9,4 C 91 % 1024,1 hPa 0,0 l/m 0 min 0 min 0 W/m 9,7 km/h (2 Bft) 100,00 %
01.01.2022 05:56 12,8 C 12,2 C 9,4 C 91 % 1024,1 hPa 0,0 l/m 0 min 0 min 0 W/m 16,1 km/h (3 Bft) 95,74 %
01.01.2022 05:58 12,8 C 12,2 C 9,4 C 91 % 1024,1 hPa 0,0 l/m 0 min 0 min 0 W/m 12,9 km/h (3 Bft) 100,00 %
01.01.2022 06:00 12,8 C 12,2 C 9,4 C 91 % 1024,2 hPa 0,0 l/m 0 min 0 min 0 W/m 12,9 km/h (3 Bft) 100,00 %
01.01.2022 06:02 12,8 C 12,2 C 9,4 C 91 % 1024,2 hPa 0,0 l/m 0 min 0 min 0 W/m 16,1 km/h (3 Bft) 100,00 %
01.01.2022 06:04 12,8 C 12,2 C 9,4 C 91 % 1024,3 hPa 0,0 l/m 0 min 0 min 0 W/m 12,9 km/h (3 Bft) 100,00 %
01.01.2022 06:06 12,8 C 12,2 C 9,4 C 91 % 1024,4 hPa 0,0 l/m 0 min 0 min 0 W/m 12,9 km/h (3 Bft) 100,00 %
01.01.2022 06:08 12,8 C 12,2 C 9,4 C 91 % 1024,4 hPa 0,0 l/m 0 min 0 min 0 W/m 9,7 km/h (2 Bft) 100,00 %
01.01.2022 06:10 12,8 C 12,2 C 9,4 C 91 % 1024,3 hPa 0,0 l/m 0 min 0 min 0 W/m 9,7 km/h (2 Bft) 100,00 %
01.01.2022 06:12 12,8 C 12,2 C 9,4 C 91 % 1024,3 hPa 0,0 l/m 0 min 0 min 0 W/m 9,7 km/h (2 Bft) 100,00 %
01.01.2022 06:14 12,8 C 12,2 C 9,4 C 91 % 1024,4 hPa 0,0 l/m 0 min 0 min 0 W/m 9,7 km/h (2 Bft) 100,00 %
01.01.2022 06:16 12,8 C 12,2 C 9,4 C 91 % 1024,4 hPa 0,0 l/m 0 min 0 min 0 W/m 12,9 km/h (3 Bft) 100,00 %
01.01.2022 06:18 12,8 C 12,2 C 9,4 C 91 % 1024,4 hPa 0,0 l/m 0 min 0 min 0 W/m 9,7 km/h (2 Bft) 100,00 %
01.01.2022 06:20 12,8 C 12,2 C 9,4 C 91 % 1024,3 hPa 0,0 l/m 0 min 0 min 0 W/m 19,3 km/h (3 Bft) 100,00 %
01.01.2022 06:22 12,8 C 12,2 C 9,4 C 91 % 1024,4 hPa 0,0 l/m 0 min 0 min 0 W/m 12,9 km/h (3 Bft) 97,87 %
01.01.2022 06:24 12,8 C 12,2 C 9,4 C 91 % 1024,4 hPa 0,0 l/m 0 min 0 min 0 W/m 16,1 km/h (3 Bft) 100,00 %
01.01.2022 06:26 12,8 C 12,2 C 9,4 C 91 % 1024,4 hPa 0,0 l/m 0 min 0 min 0 W/m 9,7 km/h (2 Bft) 100,00 %
01.01.2022 06:28 12,8 C 12,2 C 9,4 C 91 % 1024,4 hPa 0,0 l/m 0 min 0 min 0 W/m 16,1 km/h (3 Bft) 100,00 %
01.01.2022 06:30 12,8 C 12,2 C 9,4 C 91 % 1024,4 hPa 0,0 l/m 0 min 0 min 0 W/m 9,7 km/h (2 Bft) 100,00 %
01.01.2022 06:32 12,8 C 12,2 C 9,4 C 91 % 1024,4 hPa 0,0 l/m 0 min 0 min 0 W/m 9,7 km/h (2 Bft) 100,00 %
01.01.2022 06:34 12,8 C 12,2 C 9,4 C 91 % 1024,4 hPa 0,0 l/m 0 min 0 min 0 W/m 12,9 km/h (3 Bft) 100,00 %
01.01.2022 06:36 12,8 C 12,2 C 9,4 C 91 % 1024,4 hPa 0,0 l/m 0 min 0 min 0 W/m 12,9 km/h (3 Bft) 100,00 %
01.01.2022 06:38 12,8 C 12,2 C 9,4 C 91 % 1024,4 hPa 0,0 l/m 0 min 0 min 0 W/m 12,9 km/h (3 Bft) 100,00 %
01.01.2022 06:40 12,8 C 12,2 C 9,4 C 91 % 1024,3 hPa 0,0 l/m 0 min 0 min 0 W/m 12,9 km/h (3 Bft) 100,00 %
01.01.2022 06:42 12,8 C 12,2 C 9,4 C 91 % 1024,3 hPa 0,0 l/m 0 min 0 min 0 W/m 19,3 km/h (3 Bft) 100,00 %
01.01.2022 06:44 12,8 C 12,2 C 9,4 C 91 % 1024,3 hPa 0,0 l/m 0 min 0 min 0 W/m 12,9 km/h (3 Bft) 100,00 %
01.01.2022 06:46 12,8 C 12,2 C 9,4 C 90 % 1024,4 hPa 0,0 l/m 0 min 0 min 0 W/m 9,7 km/h (2 Bft) 100,00 %
01.01.2022 06:48 12,8 C 12,2 C 9,4 C 90 % 1024,3 hPa 0,0 l/m 0 min 0 min 0 W/m 16,1 km/h (3 Bft) 100,00 %
01.01.2022 06:50 12,8 C 12,2 C 9,4 C 90 % 1024,3 hPa 0,0 l/m 0 min 0 min 0 W/m 16,1 km/h (3 Bft) 97,87 %
01.01.2022 06:52 12,8 C 12,2 C 9,4 C 90 % 1024,3 hPa 0,0 l/m 0 min 0 min 0 W/m 9,7 km/h (2 Bft) 100,00 %
01.01.2022 06:54 12,8 C 12,2 C 9,4 C 90 % 1024,3 hPa 0,0 l/m 0 min 0 min 0 W/m 12,9 km/h (3 Bft) 97,83 %
01.01.2022 06:56 12,8 C 12,2 C 9,4 C 90 % 1024,3 hPa 0,0 l/m 0 min 0 min 0 W/m 19,3 km/h (3 Bft) 97,87 %
01.01.2022 06:58 12,8 C 12,2 C 9,4 C 90 % 1024,2 hPa 0,0 l/m 0 min 0 min 0 W/m 16,1 km/h (3 Bft) 95,74 %
01.01.2022 07:00 12,8 C 12,2 C 9,4 C 90 % 1024,3 hPa 0,0 l/m 0 min 0 min 0 W/m 12,9 km/h (3 Bft) 97,87 %
01.01.2022 07:02 12,8 C 12,2 C 9,4 C 90 % 1024,2 hPa 0,0 l/m 0 min 0 min 0 W/m 12,9 km/h (3 Bft) 97,87 %
01.01.2022 07:04 12,8 C 12,2 C 9,4 C 90 % 1024,2 hPa 0,0 l/m 0 min 0 min 0 W/m 6,4 km/h (2 Bft) 93,62 %
01.01.2022 07:06 12,8 C 12,2 C 9,4 C 90 % 1024,2 hPa 0,0 l/m 0 min 0 min 0 W/m 9,7 km/h (2 Bft) 95,65 %
01.01.2022 07:08 12,8 C 12,2 C 9,4 C 90 % 1024,2 hPa 0,0 l/m 0 min 0 min 0 W/m 6,4 km/h (2 Bft) 95,74 %
01.01.2022 07:10 12,8 C 12,2 C 9,4 C 90 % 1024,2 hPa 0,0 l/m 0 min 0 min 0 W/m 12,9 km/h (3 Bft) 95,74 %
01.01.2022 07:12 12,8 C 12,2 C 9,4 C 90 % 1024,3 hPa 0,0 l/m 0 min 0 min 0 W/m 12,9 km/h (3 Bft) 95,74 %
01.01.2022 07:14 12,8 C 12,2 C 9,4 C 90 % 1024,3 hPa 0,0 l/m 0 min 0 min 0 W/m 9,7 km/h (2 Bft) 95,74 %
01.01.2022 07:16 12,8 C 12,2 C 9,4 C 90 % 1024,3 hPa 0,0 l/m 0 min 0 min 0 W/m 12,9 km/h (3 Bft) 95,74 %
01.01.2022 07:18 12,8 C 12,2 C 9,4 C 90 % 1024,3 hPa 0,0 l/m 0 min 0 min 0 W/m 19,3 km/h (3 Bft) 93,48 %
01.01.2022 07:20 12,8 C 12,2 C 9,4 C 90 % 1024,4 hPa 0,0 l/m 0 min 0 min 0 W/m 9,7 km/h (2 Bft) 93,62 %
01.01.2022 07:22 12,8 C 12,2 C 9,4 C 90 % 1024,4 hPa 0,0 l/m 0 min 0 min 0 W/m 22,5 km/h (4 Bft) 95,74 %
01.01.2022 07:24 12,8 C 12,2 C 9,4 C 90 % 1024,4 hPa 0,0 l/m 0 min 0 min 0 W/m 12,9 km/h (3 Bft) 91,49 %
01.01.2022 07:26 12,7 C 12,2 C 9,4 C 90 % 1024,4 hPa 0,0 l/m 0 min 0 min 0 W/m 19,3 km/h (3 Bft) 91,49 %
01.01.2022 07:28 12,8 C 12,2 C 9,4 C 90 % 1024,4 hPa 0,0 l/m 0 min 0 min 0 W/m 6,4 km/h (2 Bft) 95,65 %
01.01.2022 07:30 12,8 C 12,2 C 9,4 C 90 % 1024,4 hPa 0,0 l/m 0 min 0 min 0 W/m 19,3 km/h (3 Bft) 91,49 %
01.01.2022 07:32 12,7 C 12,2 C 9,4 C 90 % 1024,4 hPa 0,0 l/m 0 min 0 min 0 W/m 12,9 km/h (3 Bft) 91,49 %
01.01.2022 07:34 12,8 C 12,2 C 9,4 C 90 % 1024,4 hPa 0,0 l/m 0 min 0 min 0 W/m 16,1 km/h (3 Bft) 93,62 %
01.01.2022 07:36 12,8 C 12,2 C 9,4 C 90 % 1024,4 hPa 0,0 l/m 0 min 0 min 0 W/m 12,9 km/h (3 Bft) 93,62 %
01.01.2022 07:38 12,7 C 12,2 C 9,4 C 90 % 1024,4 hPa 0,0 l/m 0 min 0 min 0 W/m 16,1 km/h (3 Bft) 93,62 %
01.01.2022 07:40 12,7 C 12,2 C 9,4 C 90 % 1024,5 hPa 0,0 l/m 0 min 0 min 0 W/m 16,1 km/h (3 Bft) 97,83 %
01.01.2022 07:42 12,8 C 12,2 C 9,4 C 90 % 1024,5 hPa 0,0 l/m 0 min 0 min 0 W/m 19,3 km/h (3 Bft) 97,87 %
01.01.2022 07:44 12,8 C 12,2 C 9,4 C 90 % 1024,6 hPa 0,0 l/m 0 min 0 min 0 W/m 19,3 km/h (3 Bft) 95,74 %
01.01.2022 07:46 12,8 C 12,2 C 9,4 C 90 % 1024,5 hPa 0,0 l/m 0 min 0 min 0 W/m 16,1 km/h (3 Bft) 95,74 %
01.01.2022 07:48 12,8 C 12,2 C 9,4 C 90 % 1024,5 hPa 0,0 l/m 0 min 0 min 0 W/m 12,9 km/h (3 Bft) 97,87 %
01.01.2022 07:50 12,8 C 12,2 C 9,4 C 90 % 1024,5 hPa 0,0 l/m 0 min 0 min 0 W/m 9,7 km/h (2 Bft) 95,74 %
01.01.2022 07:52 12,8 C 12,2 C 9,4 C 90 % 1024,5 hPa 0,0 l/m 0 min 0 min 0 W/m 9,7 km/h (2 Bft) 97,83 %
01.01.2022 07:54 12,7 C 12,2 C 9,4 C 90 % 1024,5 hPa 0,0 l/m 0 min 0 min 0 W/m 9,7 km/h (2 Bft) 95,74 %
01.01.2022 07:56 12,7 C 12,2 C 9,4 C 90 % 1024,5 hPa 0,0 l/m 0 min 0 min 0 W/m 12,9 km/h (3 Bft) 97,87 %
01.01.2022 07:58 12,7 C 12,2 C 9,4 C 89 % 1024,4 hPa 0,0 l/m 0 min 0 min 0 W/m 9,7 km/h (2 Bft) 97,87 %
01.01.2022 08:00 12,7 C 12,2 C 9,4 C 89 % 1024,4 hPa 0,0 l/m 0 min 0 min 0 W/m 9,7 km/h (2 Bft) 97,87 %
01.01.2022 08:02 12,7 C 12,2 C 9,4 C 89 % 1024,4 hPa 0,0 l/m 0 min 0 min 0 W/m 9,7 km/h (2 Bft) 97,87 %
01.01.2022 08:04 12,7 C 12,2 C 9,4 C 89 % 1024,5 hPa 0,0 l/m 0 min 0 min 0 W/m 12,9 km/h (3 Bft) 97,83 %
01.01.2022 08:06 12,7 C 12,2 C 8,9 C 89 % 1024,5 hPa 0,0 l/m 0 min 0 min 0 W/m 12,9 km/h (3 Bft) 97,87 %
01.01.2022 08:08 12,7 C 12,2 C 8,9 C 89 % 1024,6 hPa 0,0 l/m 0 min 0 min 0 W/m 16,1 km/h (3 Bft) 97,87 %
01.01.2022 08:10 12,7 C 12,2 C 9,4 C 89 % 1024,5 hPa 0,0 l/m 0 min 0 min 0 W/m 19,3 km/h (3 Bft) 100,00 %
01.01.2022 08:12 12,7 C 12,2 C 8,9 C 89 % 1024,6 hPa 0,0 l/m 0 min 0 min 0 W/m 16,1 km/h (3 Bft) 100,00 %
01.01.2022 08:14 12,7 C 12,2 C 8,9 C 89 % 1024,5 hPa 0,0 l/m 0 min 0 min 0 W/m 12,9 km/h (3 Bft) 97,87 %
01.01.2022 08:16 12,7 C 12,2 C 8,9 C 89 % 1024,5 hPa 0,0 l/m 0 min 0 min 0 W/m 12,9 km/h (3 Bft) 100,00 %
01.01.2022 08:18 12,7 C 12,2 C 8,9 C 89 % 1024,6 hPa 0,0 l/m 0 min 0 min 0 W/m 12,9 km/h (3 Bft) 100,00 %
01.01.2022 08:20 12,7 C 12,2 C 8,9 C 89 % 1024,6 hPa 0,0 l/m 0 min 0 min 0 W/m 12,9 km/h (3 Bft) 97,87 %
01.01.2022 08:22 12,7 C 12,2 C 8,9 C 89 % 1024,6 hPa 0,0 l/m 0 min 0 min 0 W/m 16,1 km/h (3 Bft) 100,00 %
01.01.2022 08:24 12,7 C 12,2 C 8,9 C 89 % 1024,7 hPa 0,0 l/m 0 min 0 min 0 W/m 12,9 km/h (3 Bft) 100,00 %
01.01.2022 08:26 12,7 C 12,2 C 8,9 C 89 % 1024,8 hPa 0,0 l/m 0 min 0 min 0 W/m 12,9 km/h (3 Bft) 97,87 %
01.01.2022 08:28 12,7 C 12,2 C 8,9 C 89 % 1024,7 hPa 0,0 l/m 0 min 0 min 0 W/m 9,7 km/h (2 Bft) 100,00 %
01.01.2022 08:30 12,7 C 12,2 C 8,9 C 89 % 1024,8 hPa 0,0 l/m 0 min 0 min 0 W/m 12,9 km/h (3 Bft) 100,00 %
01.01.2022 08:32 12,7 C 12,2 C 8,9 C 89 % 1024,8 hPa 0,0 l/m 0 min 0 min 0 W/m 16,1 km/h (3 Bft) 100,00 %
01.01.2022 08:34 12,7 C 12,2 C 8,9 C 89 % 1024,8 hPa 0,0 l/m 0 min 0 min 0 W/m 12,9 km/h (3 Bft) 100,00 %
01.01.2022 08:36 12,7 C 12,2 C 8,9 C 89 % 1024,8 hPa 0,0 l/m 0 min 0 min 0 W/m 16,1 km/h (3 Bft) 100,00 %
01.01.2022 08:38 12,7 C 12,2 C 8,9 C 89 % 1024,8 hPa 0,0 l/m 0 min 0 min 0 W/m 12,9 km/h (3 Bft) 100,00 %
01.01.2022 08:40 12,7 C 12,2 C 8,9 C 89 % 1024,8 hPa 0,0 l/m 0 min 0 min 2 W/m 9,7 km/h (2 Bft) 100,00 %
01.01.2022 08:42 12,7 C 11,7 C 8,9 C 89 % 1024,8 hPa 0,0 l/m 0 min 0 min 5 W/m 6,4 km/h (2 Bft) 100,00 %
01.01.2022 08:43 12,6 C 11,7 C 8,9 C 89 % 1024,8 hPa 0,0 l/m 0 min 0 min 5 W/m 16,1 km/h (3 Bft) 100,00 %
01.01.2022 08:46 12,6 C 11,7 C 8,9 C 89 % 1024,9 hPa 0,0 l/m 0 min 0 min 5 W/m 6,4 km/h (2 Bft) 100,00 %
01.01.2022 08:48 12,6 C 11,7 C 8,9 C 89 % 1024,8 hPa 0,0 l/m 0 min 0 min 7 W/m 6,4 km/h (2 Bft) 100,00 %
01.01.2022 08:50 12,6 C 11,7 C 8,9 C 89 % 1024,9 hPa 0,0 l/m 0 min 0 min 7 W/m 19,3 km/h (3 Bft) 97,87 %
01.01.2022 08:52 12,6 C 11,7 C 8,9 C 89 % 1024,9 hPa 0,0 l/m 0 min 0 min 7 W/m 12,9 km/h (3 Bft) 100,00 %
01.01.2022 08:54 12,6 C 11,7 C 8,9 C 89 % 1024,9 hPa 0,0 l/m 0 min 0 min 8 W/m 16,1 km/h (3 Bft) 100,00 %
01.01.2022 08:56 12,6 C 12,2 C 8,9 C 89 % 1025,0 hPa 0,0 l/m 0 min 0 min 9 W/m 16,1 km/h (3 Bft) 100,00 %
01.01.2022 08:58 12,6 C 11,7 C 8,9 C 89 % 1025,1 hPa 0,0 l/m 0 min 0 min 8 W/m 12,9 km/h (3 Bft) 97,87 %
01.01.2022 09:00 12,6 C 11,7 C 8,9 C 89 % 1025,1 hPa 0,0 l/m 0 min 0 min 7 W/m 12,9 km/h (3 Bft) 97,87 %
01.01.2022 09:02 12,6 C 11,7 C 8,9 C 89 % 1025,1 hPa 0,0 l/m 0 min 0 min 8 W/m 9,7 km/h (2 Bft) 91,49 %
01.01.2022 09:04 12,6 C 11,7 C 8,9 C 89 % 1025,0 hPa 0,0 l/m 0 min 0 min 9 W/m 16,1 km/h (3 Bft) 97,83 %
01.01.2022 09:06 12,6 C 12,2 C 8,9 C 89 % 1025,0 hPa 0,0 l/m 0 min 0 min 12 W/m 12,9 km/h (3 Bft) 97,87 %
01.01.2022 09:08 12,6 C 12,2 C 8,9 C 89 % 1025,0 hPa 0,0 l/m 0 min 0 min 16 W/m 12,9 km/h (3 Bft) 97,87 %
01.01.2022 09:10 12,6 C 11,7 C 8,9 C 89 % 1025,0 hPa 0,0 l/m 0 min 0 min 19 W/m 9,7 km/h (2 Bft) 97,87 %
01.01.2022 09:12 12,6 C 12,2 C 8,9 C 89 % 1025,0 hPa 0,0 l/m 0 min 0 min 21 W/m 6,4 km/h (2 Bft) 97,87 %
01.01.2022 09:14 12,6 C 12,2 C 8,9 C 89 % 1025,0 hPa 0,0 l/m 0 min 0 min 21 W/m 12,9 km/h (3 Bft) 97,87 %
01.01.2022 09:16 12,6 C 12,2 C 8,9 C 89 % 1025,0 hPa 0,0 l/m 0 min 0 min 24 W/m 9,7 km/h (2 Bft) 97,83 %
01.01.2022 09:18 12,6 C 12,2 C 8,9 C 89 % 1025,0 hPa 0,0 l/m 0 min 0 min 24 W/m 9,7 km/h (2 Bft) 97,87 %
01.01.2022 09:20 12,6 C 12,2 C 8,9 C 89 % 1025,0 hPa 0,0 l/m 0 min 0 min 26 W/m 6,4 km/h (2 Bft) 97,87 %
01.01.2022 09:22 12,6 C 12,2 C 8,9 C 89 % 1025,0 hPa 0,0 l/m 0 min 0 min 26 W/m 12,9 km/h (3 Bft) 97,87 %
01.01.2022 09:24 12,6 C 12,2 C 8,9 C 89 % 1025,0 hPa 0,0 l/m 0 min 0 min 29 W/m 12,9 km/h (3 Bft) 97,87 %
01.01.2022 09:26 12,6 C 12,2 C 8,9 C 89 % 1025,1 hPa 0,0 l/m 0 min 0 min 41 W/m 9,7 km/h (2 Bft) 97,87 %
01.01.2022 09:28 12,6 C 12,2 C 8,9 C 89 % 1025,1 hPa 0,0 l/m 0 min 0 min 39 W/m 12,9 km/h (3 Bft) 97,83 %
01.01.2022 09:30 12,6 C 12,2 C 8,9 C 89 % 1025,0 hPa 0,0 l/m 0 min 0 min 30 W/m 16,1 km/h (3 Bft) 97,87 %
01.01.2022 09:32 12,6 C 12,2 C 8,9 C 89 % 1025,1 hPa 0,0 l/m 0 min 0 min 28 W/m 6,4 km/h (2 Bft) 97,87 %
01.01.2022 09:34 12,6 C 12,2 C 8,9 C 89 % 1025,2 hPa 0,0 l/m 0 min 0 min 30 W/m 9,7 km/h (2 Bft) 95,74 %
01.01.2022 09:36 12,6 C 12,2 C 8,9 C 89 % 1025,2 hPa 0,0 l/m 0 min 0 min 29 W/m 12,9 km/h (3 Bft) 100,00 %
01.01.2022 09:38 12,6 C 12,2 C 8,9 C 89 % 1025,1 hPa 0,0 l/m 0 min 0 min 32 W/m 12,9 km/h (3 Bft) 100,00 %
01.01.2022 09:40 12,6 C 12,2 C 8,9 C 89 % 1025,1 hPa 0,0 l/m 0 min 0 min 34 W/m 12,9 km/h (3 Bft) 98,11 %
01.01.2022 09:42 12,6 C 12,2 C 8,9 C 89 % 1025,1 hPa 0,0 l/m 0 min 0 min 36 W/m 9,7 km/h (2 Bft) 97,87 %
01.01.2022 09:44 12,6 C 12,2 C 8,9 C 89 % 1025,2 hPa 0,0 l/m 0 min 0 min 39 W/m 6,4 km/h (2 Bft) 95,74 %
01.01.2022 09:46 12,6 C 12,2 C 8,9 C 89 % 1025,1 hPa 0,0 l/m 0 min 0 min 43 W/m 6,4 km/h (2 Bft) 97,87 %
01.01.2022 09:48 12,6 C 12,2 C 8,9 C 89 % 1025,2 hPa 0,0 l/m 0 min 0 min 48 W/m 9,7 km/h (2 Bft) 97,83 %
01.01.2022 09:50 12,6 C 12,2 C 8,9 C 89 % 1025,1 hPa 0,0 l/m 0 min 0 min 52 W/m 6,4 km/h (2 Bft) 97,87 %
01.01.2022 09:52 12,6 C 12,2 C 8,9 C 89 % 1025,1 hPa 0,0 l/m 0 min 0 min 50 W/m 9,7 km/h (2 Bft) 95,74 %
01.01.2022 09:54 12,6 C 12,2 C 9,4 C 89 % 1025,0 hPa 0,0 l/m 0 min 0 min 56 W/m 12,9 km/h (3 Bft) 95,74 %
01.01.2022 09:56 12,6 C 12,2 C 9,4 C 89 % 1025,0 hPa 0,0 l/m 0 min 0 min 64 W/m 6,4 km/h (2 Bft) 95,74 %
01.01.2022 09:58 12,6 C 12,2 C 9,4 C 89 % 1025,0 hPa 0,0 l/m 0 min 0 min 72 W/m 12,9 km/h (3 Bft) 97,87 %
01.01.2022 10:00 12,6 C 12,2 C 9,4 C 89 % 1025,0 hPa 0,0 l/m 0 min 0 min 74 W/m 9,7 km/h (2 Bft) 97,83 %
01.01.2022 10:02 12,7 C 12,2 C 9,4 C 89 % 1025,0 hPa 0,0 l/m 0 min 0 min 80 W/m 9,7 km/h (2 Bft) 97,87 %
01.01.2022 10:04 12,7 C 12,8 C 9,4 C 89 % 1025,0 hPa 0,0 l/m 0 min 0 min 82 W/m 6,4 km/h (2 Bft) 97,87 %
01.01.2022 10:06 12,7 C 12,8 C 9,4 C 89 % 1025,0 hPa 0,0 l/m 0 min 0 min 76 W/m 6,4 km/h (2 Bft) 95,74 %
01.01.2022 10:08 12,7 C 12,8 C 9,4 C 89 % 1025,0 hPa 0,0 l/m 0 min 0 min 70 W/m 6,4 km/h (2 Bft) 97,87 %
01.01.2022 10:10 12,8 C 12,8 C 9,4 C 89 % 1025,0 hPa 0,0 l/m 0 min 0 min 68 W/m 6,4 km/h (2 Bft) 95,74 %
01.01.2022 10:12 12,8 C 12,8 C 9,4 C 89 % 1024,9 hPa 0,0 l/m 0 min 0 min 64 W/m 12,9 km/h (3 Bft) 93,48 %
01.01.2022 10:14 12,8 C 12,8 C 9,4 C 89 % 1024,9 hPa 0,0 l/m 0 min 0 min 66 W/m 12,9 km/h (3 Bft) 95,74 %
01.01.2022 10:16 12,8 C 12,8 C 9,4 C 89 % 1024,9 hPa 0,0 l/m 0 min 0 min 78 W/m 12,9 km/h (3 Bft) 95,74 %
01.01.2022 10:18 12,8 C 12,8 C 9,4 C 89 % 1024,8 hPa 0,0 l/m 0 min 0 min 87 W/m 16,1 km/h (3 Bft) 95,74 %
01.01.2022 10:20 12,8 C 12,8 C 9,4 C 88 % 1024,9 hPa 0,0 l/m 0 min 0 min 95 W/m 9,7 km/h (2 Bft) 95,74 %
01.01.2022 10:22 12,8 C 12,8 C 9,4 C 88 % 1024,9 hPa 0,0 l/m 2 min 0 min 104 W/m 12,9 km/h (3 Bft) 95,74 %
01.01.2022 10:24 12,8 C 12,8 C 9,4 C 89 % 1024,9 hPa 0,0 l/m 2 min 0 min 104 W/m 6,4 km/h (2 Bft) 95,65 %
01.01.2022 10:26 12,9 C 12,8 C 9,4 C 88 % 1025,0 hPa 0,0 l/m 2 min 0 min 105 W/m 16,1 km/h (3 Bft) 95,74 %
01.01.2022 10:28 12,9 C 12,8 C 9,4 C 88 % 1024,9 hPa 0,0 l/m 0 min 0 min 94 W/m 12,9 km/h (3 Bft) 95,74 %
01.01.2022 10:30 12,9 C 12,8 C 9,4 C 88 % 1024,9 hPa 0,0 l/m 0 min 0 min 93 W/m 12,9 km/h (3 Bft) 97,87 %
01.01.2022 10:32 12,9 C 12,8 C 9,4 C 88 % 1024,9 hPa 0,0 l/m 0 min 0 min 97 W/m 9,7 km/h (2 Bft) 95,74 %
01.01.2022 10:34 13,0 C 12,8 C 9,4 C 88 % 1025,0 hPa 0,0 l/m 0 min 0 min 103 W/m 19,3 km/h (3 Bft) 95,74 %
01.01.2022 10:36 13,0 C 12,8 C 9,4 C 88 % 1025,0 hPa 0,0 l/m 2 min 0 min 112 W/m 12,9 km/h (3 Bft) 97,83 %
01.01.2022 10:38 13,0 C 12,8 C 9,4 C 88 % 1025,0 hPa 0,0 l/m 2 min 0 min 118 W/m 9,7 km/h (2 Bft) 97,87 %
01.01.2022 10:40 13,1 C 12,8 C 9,4 C 88 % 1025,1 hPa 0,0 l/m 2 min 0 min 120 W/m 16,1 km/h (3 Bft) 97,87 %
01.01.2022 10:42 13,1 C 12,8 C 9,4 C 87 % 1025,1 hPa 0,0 l/m 2 min 0 min 118 W/m 16,1 km/h (3 Bft) 97,87 %
01.01.2022 10:44 13,1 C 12,8 C 9,4 C 87 % 1025,2 hPa 0,0 l/m 2 min 0 min 119 W/m 12,9 km/h (3 Bft) 93,62 %
01.01.2022 10:46 13,1 C 13,3 C 9,4 C 87 % 1025,1 hPa 0,0 l/m 2 min 0 min 123 W/m 16,1 km/h (3 Bft) 95,65 %
01.01.2022 10:48 13,1 C 13,3 C 9,4 C 87 % 1025,2 hPa 0,0 l/m 2 min 0 min 126 W/m 12,9 km/h (3 Bft) 95,74 %
01.01.2022 10:50 13,2 C 13,3 C 10,0 C 87 % 1025,1 hPa 0,0 l/m 2 min 0 min 124 W/m 9,7 km/h (2 Bft) 95,74 %
01.01.2022 10:52 13,2 C 13,3 C 10,0 C 87 % 1025,2 hPa 0,0 l/m 2 min 0 min 127 W/m 9,7 km/h (2 Bft) 95,74 %
01.01.2022 10:54 13,2 C 13,3 C 10,0 C 87 % 1025,2 hPa 0,0 l/m 2 min 0 min 138 W/m 12,9 km/h (3 Bft) 97,87 %
01.01.2022 10:56 13,2 C 13,3 C 10,0 C 87 % 1025,3 hPa 0,0 l/m 2 min 0 min 144 W/m 12,9 km/h (3 Bft) 97,87 %
01.01.2022 10:58 13,3 C 13,3 C 10,0 C 87 % 1025,2 hPa 0,0 l/m 2 min 0 min 144 W/m 12,9 km/h (3 Bft) 93,48 %
01.01.2022 11:00 13,3 C 13,3 C 10,0 C 87 % 1025,2 hPa 0,0 l/m 2 min 0 min 143 W/m 12,9 km/h (3 Bft) 97,87 %
01.01.2022 11:02 13,3 C 13,3 C 10,0 C 87 % 1025,2 hPa 0,0 l/m 2 min 0 min 135 W/m 12,9 km/h (3 Bft) 97,87 %
01.01.2022 11:04 13,3 C 13,3 C 10,0 C 87 % 1025,1 hPa 0,0 l/m 2 min 0 min 134 W/m 16,1 km/h (3 Bft) 97,87 %
01.01.2022 11:06 13,4 C 13,3 C 10,0 C 87 % 1025,0 hPa 0,0 l/m 2 min 0 min 133 W/m 12,9 km/h (3 Bft) 100,00 %
01.01.2022 11:08 13,4 C 13,9 C 10,0 C 87 % 1025,1 hPa 0,0 l/m 0 min 0 min 125 W/m 6,4 km/h (2 Bft) 95,74 %
01.01.2022 11:10 13,4 C 13,9 C 10,0 C 87 % 1025,1 hPa 0,0 l/m 0 min 0 min 130 W/m 9,7 km/h (2 Bft) 100,00 %
01.01.2022 11:12 13,5 C 13,9 C 10,0 C 87 % 1025,1 hPa 0,0 l/m 0 min 0 min 129 W/m 9,7 km/h (2 Bft) 97,83 %
01.01.2022 11:14 13,5 C 13,9 C 10,0 C 87 % 1025,2 hPa 0,0 l/m 0 min 0 min 128 W/m 9,7 km/h (2 Bft) 100,00 %
01.01.2022 11:16 13,5 C 13,9 C 10,0 C 87 % 1025,1 hPa 0,0 l/m 0 min 0 min 126 W/m 9,7 km/h (2 Bft) 97,87 %
01.01.2022 11:18 13,6 C 13,9 C 10,0 C 87 % 1025,0 hPa 0,0 l/m 0 min 0 min 128 W/m 12,9 km/h (3 Bft) 97,87 %
01.01.2022 11:20 13,6 C 13,9 C 10,0 C 87 % 1025,0 hPa 0,0 l/m 0 min 0 min 111 W/m 16,1 km/h (3 Bft) 97,87 %
01.01.2022 11:22 13,6 C 13,9 C 10,0 C 86 % 1025,0 hPa 0,0 l/m 0 min 0 min 107 W/m 12,9 km/h (3 Bft) 97,83 %
01.01.2022 11:24 13,6 C 13,9 C 10,0 C 86 % 1025,1 hPa 0,0 l/m 0 min 0 min 106 W/m 12,9 km/h (3 Bft) 97,87 %
01.01.2022 11:26 13,6 C 13,9 C 10,0 C 86 % 1025,1 hPa 0,0 l/m 0 min 0 min 110 W/m 9,7 km/h (2 Bft) 97,87 %
01.01.2022 11:28 13,6 C 13,3 C 10,0 C 86 % 1025,0 hPa 0,0 l/m 0 min 0 min 98 W/m 12,9 km/h (3 Bft) 97,87 %
01.01.2022 11:30 13,7 C 13,3 C 10,0 C 86 % 1025,0 hPa 0,0 l/m 0 min 0 min 90 W/m 16,1 km/h (3 Bft) 97,87 %
01.01.2022 11:32 13,7 C 13,3 C 10,0 C 86 % 1024,9 hPa 0,0 l/m 0 min 0 min 91 W/m 12,9 km/h (3 Bft) 97,87 %
01.01.2022 11:34 13,7 C 13,3 C 10,0 C 86 % 1024,9 hPa 0,0 l/m 0 min 0 min 91 W/m 9,7 km/h (2 Bft) 97,83 %
01.01.2022 11:36 13,7 C 13,3 C 10,0 C 86 % 1024,9 hPa 0,0 l/m 0 min 0 min 90 W/m 12,9 km/h (3 Bft) 97,87 %
01.01.2022 11:38 13,7 C 13,3 C 10,0 C 86 % 1024,9 hPa 0,0 l/m 0 min 0 min 95 W/m 9,7 km/h (2 Bft) 97,87 %
01.01.2022 11:40 13,7 C 13,3 C 10,0 C 86 % 1024,8 hPa 0,0 l/m 0 min 0 min 98 W/m 16,1 km/h (3 Bft) 95,74 %
01.01.2022 11:42 13,7 C 13,3 C 10,0 C 86 % 1024,8 hPa 0,0 l/m 0 min 0 min 101 W/m 9,7 km/h (2 Bft) 100,00 %
01.01.2022 11:44 13,8 C 13,3 C 10,0 C 86 % 1024,8 hPa 0,0 l/m 0 min 0 min 106 W/m 12,9 km/h (3 Bft) 100,00 %
01.01.2022 11:46 13,8 C 13,9 C 10,0 C 86 % 1024,7 hPa 0,0 l/m 0 min 0 min 111 W/m 6,4 km/h (2 Bft) 100,00 %
01.01.2022 11:48 13,8 C 13,9 C 10,0 C 86 % 1024,7 hPa 0,0 l/m 0 min 0 min 117 W/m 12,9 km/h (3 Bft) 97,87 %
01.01.2022 11:50 13,8 C 13,9 C 10,0 C 86 % 1024,6 hPa 0,0 l/m 0 min 0 min 120 W/m 12,9 km/h (3 Bft) 100,00 %
01.01.2022 11:52 13,8 C 13,9 C 10,0 C 86 % 1024,7 hPa 0,0 l/m 0 min 0 min 118 W/m 6,4 km/h (2 Bft) 100,00 %
01.01.2022 11:54 13,8 C 13,9 C 10,0 C 86 % 1024,7 hPa 0,0 l/m 0 min 0 min 117 W/m 12,9 km/h (3 Bft) 100,00 %
01.01.2022 11:56 13,9 C 13,9 C 10,0 C 86 % 1024,6 hPa 0,0 l/m 0 min 0 min 116 W/m 12,9 km/h (3 Bft) 95,65 %
01.01.2022 11:58 13,9 C 13,9 C 10,0 C 86 % 1024,6 hPa 0,0 l/m 0 min 0 min 115 W/m 12,9 km/h (3 Bft) 100,00 %
01.01.2022 12:00 13,9 C 13,9 C 10,0 C 86 % 1024,6 hPa 0,0 l/m 0 min 0 min 117 W/m 9,7 km/h (2 Bft) 100,00 %
01.01.2022 12:02 13,9 C 13,9 C 10,6 C 86 % 1024,5 hPa 0,0 l/m 0 min 0 min 122 W/m 12,9 km/h (3 Bft) 100,00 %
01.01.2022 12:04 13,9 C 14,4 C 10,6 C 86 % 1024,5 hPa 0,0 l/m 0 min 0 min 124 W/m 12,9 km/h (3 Bft) 97,87 %
01.01.2022 12:06 14,0 C 14,4 C 10,6 C 86 % 1024,4 hPa 0,0 l/m 0 min 0 min 132 W/m 12,9 km/h (3 Bft) 97,87 %
01.01.2022 12:08 14,0 C 14,4 C 10,6 C 86 % 1024,4 hPa 0,0 l/m 0 min 0 min 140 W/m 19,3 km/h (3 Bft) 100,00 %
01.01.2022 12:10 14,1 C 14,4 C 10,6 C 85 % 1024,4 hPa 0,0 l/m 0 min 0 min 147 W/m 16,1 km/h (3 Bft) 100,00 %
01.01.2022 12:12 14,1 C 14,4 C 10,6 C 85 % 1024,4 hPa 0,0 l/m 2 min 0 min 179 W/m 12,9 km/h (3 Bft) 97,87 %
01.01.2022 12:14 14,1 C 14,4 C 10,6 C 86 % 1024,3 hPa 0,0 l/m 2 min 0 min 154 W/m 12,9 km/h (3 Bft) 100,00 %
01.01.2022 12:16 14,2 C 14,4 C 10,6 C 85 % 1024,3 hPa 0,0 l/m 2 min 0 min 155 W/m 16,1 km/h (3 Bft) 100,00 %
01.01.2022 12:18 14,2 C 14,4 C 10,6 C 85 % 1024,3 hPa 0,0 l/m 2 min 0 min 155 W/m 12,9 km/h (3 Bft) 97,87 %
01.01.2022 12:20 14,3 C 15,0 C 10,6 C 85 % 1024,3 hPa 0,0 l/m 0 min 0 min 147 W/m 12,9 km/h (3 Bft) 97,83 %
01.01.2022 12:22 14,3 C 15,0 C 10,6 C 85 % 1024,2 hPa 0,0 l/m 0 min 0 min 140 W/m 16,1 km/h (3 Bft) 97,87 %
01.01.2022 12:24 14,3 C 15,0 C 10,6 C 85 % 1024,1 hPa 0,0 l/m 0 min 0 min 129 W/m 12,9 km/h (3 Bft) 97,87 %
01.01.2022 12:26 14,3 C 15,0 C 10,6 C 85 % 1024,1 hPa 0,0 l/m 0 min 0 min 139 W/m 12,9 km/h (3 Bft) 95,74 %
01.01.2022 12:28 14,3 C 15,0 C 10,6 C 85 % 1024,1 hPa 0,0 l/m 2 min 0 min 154 W/m 16,1 km/h (3 Bft) 97,87 %
01.01.2022 12:30 14,4 C 15,0 C 10,6 C 85 % 1024,0 hPa 0,0 l/m 2 min 0 min 163 W/m 19,3 km/h (3 Bft) 95,74 %
01.01.2022 12:32 14,4 C 15,0 C 10,6 C 84 % 1023,9 hPa 0,0 l/m 2 min 0 min 163 W/m 12,9 km/h (3 Bft) 97,83 %
01.01.2022 12:34 14,5 C 15,0 C 10,6 C 84 % 1023,9 hPa 0,0 l/m 0 min 0 min 148 W/m 16,1 km/h (3 Bft) 97,87 %
01.01.2022 12:36 14,6 C 15,0 C 10,6 C 84 % 1023,8 hPa 0,0 l/m 0 min 0 min 147 W/m 22,5 km/h (4 Bft) 97,87 %
01.01.2022 12:38 14,6 C 15,6 C 10,6 C 84 % 1023,9 hPa 0,0 l/m 2 min 0 min 165 W/m 16,1 km/h (3 Bft) 97,87 %
01.01.2022 12:40 14,6 C 16,1 C 10,6 C 84 % 1024,0 hPa 0,0 l/m 2 min 0 min 185 W/m 12,9 km/h (3 Bft) 97,87 %
01.01.2022 12:42 14,7 C 16,7 C 10,6 C 84 % 1024,0 hPa 0,0 l/m 2 min 0 min 222 W/m 12,9 km/h (3 Bft) 97,87 %
01.01.2022 12:44 14,7 C 16,7 C 10,6 C 84 % 1023,9 hPa 0,0 l/m 2 min 0 min 223 W/m 12,9 km/h (3 Bft) 97,87 %
01.01.2022 12:46 14,8 C 16,7 C 10,6 C 84 % 1023,9 hPa 0,0 l/m 2 min 0 min 234 W/m 16,1 km/h (3 Bft) 93,48 %
01.01.2022 12:48 14,8 C 16,7 C 10,6 C 84 % 1023,9 hPa 0,0 l/m 2 min 0 min 211 W/m 16,1 km/h (3 Bft) 95,74 %
01.01.2022 12:50 14,9 C 17,2 C 10,6 C 84 % 1023,9 hPa 0,0 l/m 2 min 0 min 206 W/m 6,4 km/h (2 Bft) 97,87 %
01.01.2022 12:52 14,9 C 17,2 C 10,6 C 84 % 1023,8 hPa 0,0 l/m 2 min 0 min 208 W/m 16,1 km/h (3 Bft) 97,87 %
01.01.2022 12:54 14,9 C 17,2 C 10,6 C 83 % 1023,8 hPa 0,0 l/m 2 min 0 min 202 W/m 19,3 km/h (3 Bft) 97,87 %
01.01.2022 12:56 14,9 C 16,7 C 10,6 C 83 % 1023,8 hPa 0,0 l/m 2 min 0 min 212 W/m 19,3 km/h (3 Bft) 95,65 %
01.01.2022 12:58 14,9 C 18,3 C 11,1 C 83 % 1023,8 hPa 0,0 l/m 2 min 0 min 273 W/m 16,1 km/h (3 Bft) 95,74 %
01.01.2022 13:00 15,0 C 18,3 C 11,1 C 83 % 1023,7 hPa 0,0 l/m 2 min 0 min 296 W/m 16,1 km/h (3 Bft) 97,87 %
01.01.2022 13:02 15,1 C 18,9 C 11,1 C 83 % 1023,7 hPa 0,0 l/m 2 min 0 min 264 W/m 12,9 km/h (3 Bft) 97,87 %
01.01.2022 13:04 15,1 C 18,9 C 11,1 C 83 % 1023,7 hPa 0,0 l/m 2 min 0 min 218 W/m 12,9 km/h (3 Bft) 97,87 %
01.01.2022 13:06 15,1 C 18,3 C 11,1 C 83 % 1023,6 hPa 0,0 l/m 2 min 0 min 213 W/m 16,1 km/h (3 Bft) 95,74 %
01.01.2022 13:08 15,1 C 18,3 C 11,1 C 83 % 1023,6 hPa 0,0 l/m 2 min 0 min 228 W/m 12,9 km/h (3 Bft) 100,00 %
01.01.2022 13:10 15,2 C 18,9 C 11,1 C 83 % 1023,6 hPa 0,0 l/m 2 min 0 min 245 W/m 9,7 km/h (2 Bft) 97,87 %
01.01.2022 13:12 15,2 C 18,9 C 11,1 C 83 % 1023,5 hPa 0,0 l/m 2 min 0 min 249 W/m 12,9 km/h (3 Bft) 95,74 %
01.01.2022 13:14 15,3 C 18,3 C 11,1 C 83 % 1023,5 hPa 0,0 l/m 2 min 0 min 231 W/m 16,1 km/h (3 Bft) 97,87 %
01.01.2022 13:16 15,3 C 18,3 C 11,1 C 83 % 1023,5 hPa 0,0 l/m 2 min 0 min 205 W/m 12,9 km/h (3 Bft) 95,74 %
01.01.2022 13:18 15,3 C 19,4 C 11,1 C 83 % 1023,4 hPa 0,0 l/m 2 min 0 min 272 W/m 12,9 km/h (3 Bft) 97,87 %
01.01.2022 13:20 15,4 C 20,0 C 11,1 C 83 % 1023,5 hPa 0,0 l/m 2 min 0 min 284 W/m 16,1 km/h (3 Bft) 97,83 %
01.01.2022 13:22 15,4 C 20,0 C 11,1 C 82 % 1023,4 hPa 0,0 l/m 2 min 0 min 294 W/m 19,3 km/h (3 Bft) 93,62 %
01.01.2022 13:24 15,4 C 19,4 C 11,1 C 82 % 1023,4 hPa 0,0 l/m 2 min 0 min 285 W/m 19,3 km/h (3 Bft) 95,74 %
01.01.2022 13:26 15,4 C 19,4 C 11,1 C 82 % 1023,4 hPa 0,0 l/m 2 min 0 min 243 W/m 16,1 km/h (3 Bft) 95,74 %
01.01.2022 13:28 15,4 C 18,3 C 11,1 C 82 % 1023,4 hPa 0,0 l/m 2 min 0 min 198 W/m 16,1 km/h (3 Bft) 95,74 %
01.01.2022 13:30 15,4 C 17,8 C 11,1 C 82 % 1023,5 hPa 0,0 l/m 2 min 0 min 182 W/m 16,1 km/h (3 Bft) 95,74 %
01.01.2022 13:32 15,4 C 16,7 C 11,1 C 82 % 1023,4 hPa 0,0 l/m 2 min 0 min 179 W/m 19,3 km/h (3 Bft) 95,65 %
01.01.2022 13:34 15,4 C 16,7 C 11,1 C 82 % 1023,5 hPa 0,0 l/m 2 min 0 min 177 W/m 16,1 km/h (3 Bft) 95,74 %
01.01.2022 13:36 15,4 C 16,7 C 11,1 C 82 % 1023,4 hPa 0,0 l/m 2 min 0 min 158 W/m 16,1 km/h (3 Bft) 93,62 %
01.01.2022 13:38 15,4 C 16,1 C 11,1 C 82 % 1023,5 hPa 0,0 l/m 2 min 0 min 150 W/m 9,7 km/h (2 Bft) 95,74 %
01.01.2022 13:40 15,4 C 16,7 C 11,1 C 82 % 1023,4 hPa 0,0 l/m 2 min 0 min 185 W/m 12,9 km/h (3 Bft) 95,74 %
01.01.2022 13:42 15,4 C 16,1 C 11,1 C 82 % 1023,5 hPa 0,0 l/m 2 min 0 min 163 W/m 12,9 km/h (3 Bft) 95,74 %
01.01.2022 13:44 15,4 C 16,1 C 11,1 C 82 % 1023,5 hPa 0,0 l/m 0 min 0 min 135 W/m 9,7 km/h (2 Bft) 93,48 %
01.01.2022 13:46 15,3 C 15,6 C 10,6 C 82 % 1023,5 hPa 0,0 l/m 0 min 0 min 125 W/m 12,9 km/h (3 Bft) 93,62 %
01.01.2022 13:48 15,3 C 15,0 C 11,1 C 82 % 1023,4 hPa 0,0 l/m 0 min 0 min 121 W/m 16,1 km/h (3 Bft) 93,62 %
01.01.2022 13:50 15,3 C 15,0 C 11,1 C 82 % 1023,5 hPa 0,0 l/m 0 min 0 min 119 W/m 12,9 km/h (3 Bft) 95,74 %
01.01.2022 13:52 15,3 C 15,0 C 10,6 C 83 % 1023,4 hPa 0,0 l/m 0 min 0 min 118 W/m 12,9 km/h (3 Bft) 95,74 %
01.01.2022 13:54 15,3 C 14,4 C 10,6 C 83 % 1023,4 hPa 0,0 l/m 0 min 0 min 114 W/m 12,9 km/h (3 Bft) 95,74 %
01.01.2022 13:56 15,2 C 14,4 C 10,6 C 83 % 1023,4 hPa 0,0 l/m 0 min 0 min 113 W/m 12,9 km/h (3 Bft) 95,65 %
01.01.2022 13:58 15,2 C 14,4 C 10,6 C 83 % 1023,4 hPa 0,0 l/m 0 min 0 min 111 W/m 12,9 km/h (3 Bft) 91,49 %
01.01.2022 14:00 15,2 C 14,4 C 10,6 C 83 % 1023,3 hPa 0,0 l/m 0 min 0 min 110 W/m 16,1 km/h (3 Bft) 95,74 %
01.01.2022 14:02 15,1 C 14,4 C 10,6 C 83 % 1023,3 hPa 0,0 l/m 0 min 0 min 111 W/m 16,1 km/h (3 Bft) 95,74 %
01.01.2022 14:04 15,1 C 14,4 C 10,6 C 83 % 1023,3 hPa 0,0 l/m 0 min 0 min 112 W/m 16,1 km/h (3 Bft) 97,87 %
01.01.2022 14:06 15,1 C 14,4 C 10,6 C 84 % 1023,3 hPa 0,0 l/m 0 min 0 min 114 W/m 16,1 km/h (3 Bft) 97,87 %
01.01.2022 14:08 15,1 C 14,4 C 10,6 C 84 % 1023,3 hPa 0,0 l/m 0 min 0 min 123 W/m 12,9 km/h (3 Bft) 97,83 %
01.01.2022 14:10 15,0 C 14,4 C 10,6 C 84 % 1023,3 hPa 0,0 l/m 2 min 0 min 128 W/m 16,1 km/h (3 Bft) 100,00 %
01.01.2022 14:12 15,0 C 14,4 C 10,6 C 84 % 1023,4 hPa 0,0 l/m 2 min 0 min 128 W/m 16,1 km/h (3 Bft) 100,00 %
01.01.2022 14:14 14,9 C 14,4 C 10,6 C 84 % 1023,4 hPa 0,0 l/m 0 min 0 min 125 W/m 9,7 km/h (2 Bft) 100,00 %
01.01.2022 14:16 14,9 C 14,4 C 10,6 C 85 % 1023,4 hPa 0,0 l/m 2 min 0 min 130 W/m 12,9 km/h (3 Bft) 100,00 %
01.01.2022 14:18 14,9 C 14,4 C 10,6 C 85 % 1023,4 hPa 0,0 l/m 0 min 0 min 123 W/m 9,7 km/h (2 Bft) 100,00 %
01.01.2022 14:20 14,9 C 14,4 C 10,6 C 85 % 1023,3 hPa 0,0 l/m 0 min 0 min 118 W/m 16,1 km/h (3 Bft) 100,00 %
01.01.2022 14:22 14,9 C 14,4 C 10,6 C 85 % 1023,4 hPa 0,0 l/m 0 min 0 min 116 W/m 16,1 km/h (3 Bft) 100,00 %
01.01.2022 14:24 14,9 C 14,4 C 10,6 C 85 % 1023,4 hPa 0,0 l/m 0 min 0 min 110 W/m 6,4 km/h (2 Bft) 100,00 %
01.01.2022 14:26 14,8 C 14,4 C 10,6 C 85 % 1023,4 hPa 0,0 l/m 0 min 0 min 102 W/m 12,9 km/h (3 Bft) 97,87 %
01.01.2022 14:28 14,8 C 14,4 C 10,6 C 85 % 1023,4 hPa 0,0 l/m 0 min 0 min 96 W/m 12,9 km/h (3 Bft) 100,00 %
01.01.2022 14:30 14,8 C 14,4 C 10,6 C 85 % 1023,3 hPa 0,0 l/m 0 min 0 min 94 W/m 9,7 km/h (2 Bft) 97,87 %
01.01.2022 14:32 14,8 C 14,4 C 10,6 C 85 % 1023,2 hPa 0,0 l/m 0 min 0 min 93 W/m 12,9 km/h (3 Bft) 100,00 %
01.01.2022 14:34 14,8 C 14,4 C 10,6 C 85 % 1023,2 hPa 0,0 l/m 0 min 0 min 95 W/m 16,1 km/h (3 Bft) 100,00 %
01.01.2022 14:36 14,7 C 14,4 C 10,6 C 85 % 1023,2 hPa 0,0 l/m 0 min 0 min 102 W/m 6,4 km/h (2 Bft) 100,00 %
01.01.2022 14:38 14,7 C 14,4 C 10,6 C 85 % 1023,2 hPa 0,0 l/m 0 min 0 min 103 W/m 12,9 km/h (3 Bft) 100,00 %
01.01.2022 14:40 14,7 C 14,4 C 10,6 C 85 % 1023,2 hPa 0,0 l/m 0 min 0 min 99 W/m 16,1 km/h (3 Bft) 100,00 %
01.01.2022 14:42 14,7 C 14,4 C 10,6 C 85 % 1023,2 hPa 0,0 l/m 0 min 0 min 100 W/m 16,1 km/h (3 Bft) 100,00 %
01.01.2022 14:44 14,7 C 14,4 C 10,6 C 85 % 1023,3 hPa 0,0 l/m 0 min 0 min 104 W/m 19,3 km/h (3 Bft) 97,87 %
01.01.2022 14:46 14,6 C 14,4 C 10,6 C 85 % 1023,2 hPa 0,0 l/m 2 min 0 min 106 W/m 22,5 km/h (4 Bft) 97,87 %
01.01.2022 14:48 14,6 C 14,4 C 10,6 C 85 % 1023,3 hPa 0,0 l/m 2 min 0 min 103 W/m 16,1 km/h (3 Bft) 100,00 %
01.01.2022 14:50 14,6 C 14,4 C 10,6 C 86 % 1023,2 hPa 0,0 l/m 0 min 0 min 99 W/m 16,1 km/h (3 Bft) 97,87 %
01.01.2022 14:52 14,6 C 14,4 C 10,6 C 86 % 1023,2 hPa 0,0 l/m 0 min 0 min 75 W/m 16,1 km/h (3 Bft) 100,00 %
01.01.2022 14:54 14,6 C 14,4 C 10,6 C 86 % 1023,2 hPa 0,0 l/m 0 min 0 min 70 W/m 12,9 km/h (3 Bft) 97,83 %
01.01.2022 14:56 14,6 C 13,9 C 10,6 C 86 % 1023,2 hPa 0,0 l/m 0 min 0 min 69 W/m 16,1 km/h (3 Bft) 97,87 %
01.01.2022 14:58 14,5 C 13,9 C 10,6 C 86 % 1023,2 hPa 0,0 l/m 0 min 0 min 66 W/m 16,1 km/h (3 Bft) 97,87 %
01.01.2022 15:00 14,5 C 13,9 C 10,6 C 86 % 1023,2 hPa 0,0 l/m 0 min 0 min 64 W/m 19,3 km/h (3 Bft) 97,87 %
01.01.2022 15:02 14,4 C 13,9 C 10,0 C 86 % 1023,2 hPa 0,0 l/m 0 min 0 min 67 W/m 16,1 km/h (3 Bft) 97,87 %
01.01.2022 15:04 14,4 C 13,9 C 10,0 C 86 % 1023,1 hPa 0,0 l/m 0 min 0 min 61 W/m 19,3 km/h (3 Bft) 97,87 %
01.01.2022 15:06 14,4 C 13,9 C 10,0 C 86 % 1023,1 hPa 0,0 l/m 0 min 0 min 60 W/m 12,9 km/h (3 Bft) 95,65 %
01.01.2022 15:08 14,3 C 13,9 C 10,0 C 86 % 1023,0 hPa 0,0 l/m 0 min 0 min 62 W/m 12,9 km/h (3 Bft) 97,87 %
01.01.2022 15:10 14,3 C 13,9 C 10,0 C 86 % 1023,0 hPa 0,0 l/m 0 min 0 min 62 W/m 12,9 km/h (3 Bft) 97,87 %
01.01.2022 15:12 14,3 C 13,9 C 10,0 C 86 % 1023,0 hPa 0,0 l/m 0 min 0 min 60 W/m 12,9 km/h (3 Bft) 95,74 %
01.01.2022 15:14 14,3 C 13,9 C 10,0 C 86 % 1023,0 hPa 0,0 l/m 0 min 0 min 60 W/m 6,4 km/h (2 Bft) 97,87 %
01.01.2022 15:16 14,3 C 13,3 C 10,0 C 86 % 1023,0 hPa 0,0 l/m 0 min 0 min 58 W/m 12,9 km/h (3 Bft) 97,87 %
01.01.2022 15:18 14,3 C 13,3 C 10,0 C 86 % 1023,0 hPa 0,0 l/m 0 min 0 min 54 W/m 9,7 km/h (2 Bft) 95,65 %
01.01.2022 15:20 14,3 C 13,3 C 10,0 C 87 % 1023,0 hPa 0,0 l/m 0 min 0 min 52 W/m 16,1 km/h (3 Bft) 95,74 %
01.01.2022 15:22 14,3 C 13,3 C 10,0 C 87 % 1022,9 hPa 0,0 l/m 0 min 0 min 50 W/m 16,1 km/h (3 Bft) 97,87 %
01.01.2022 15:24 14,3 C 13,3 C 10,0 C 87 % 1022,9 hPa 0,0 l/m 0 min 0 min 48 W/m 19,3 km/h (3 Bft) 95,74 %
01.01.2022 15:26 14,3 C 13,3 C 10,0 C 87 % 1022,9 hPa 0,0 l/m 0 min 0 min 46 W/m 16,1 km/h (3 Bft) 95,74 %
01.01.2022 15:28 14,3 C 13,3 C 10,0 C 87 % 1022,9 hPa 0,0 l/m 0 min 0 min 43 W/m 12,9 km/h (3 Bft) 97,87 %
01.01.2022 15:30 14,2 C 13,3 C 10,0 C 87 % 1022,9 hPa 0,0 l/m 0 min 0 min 40 W/m 12,9 km/h (3 Bft) 97,83 %
01.01.2022 15:32 14,2 C 13,3 C 10,0 C 87 % 1023,0 hPa 0,0 l/m 0 min 0 min 37 W/m 16,1 km/h (3 Bft) 97,87 %
01.01.2022 15:34 14,1 C 13,3 C 10,0 C 87 % 1023,0 hPa 0,0 l/m 0 min 0 min 34 W/m 19,3 km/h (3 Bft) 97,87 %
01.01.2022 15:36 14,1 C 13,3 C 10,0 C 87 % 1023,0 hPa 0,0 l/m 0 min 0 min 31 W/m 16,1 km/h (3 Bft) 93,62 %
01.01.2022 15:38 14,1 C 13,3 C 10,0 C 87 % 1023,0 hPa 0,0 l/m 0 min 0 min 29 W/m 19,3 km/h (3 Bft) 95,74 %
01.01.2022 15:40 14,1 C 13,3 C 10,0 C 87 % 1023,0 hPa 0,0 l/m 0 min 0 min 26 W/m 6,4 km/h (2 Bft) 95,74 %
01.01.2022 15:42 14,1 C 13,3 C 10,0 C 88 % 1023,0 hPa 0,0 l/m 0 min 0 min 25 W/m 16,1 km/h (3 Bft) 97,83 %
01.01.2022 15:44 14,0 C 12,8 C 10,0 C 88 % 1022,9 hPa 0,0 l/m 0 min 0 min 25 W/m 16,1 km/h (3 Bft) 100,00 %
01.01.2022 15:46 14,0 C 12,8 C 10,0 C 88 % 1022,9 hPa 0,0 l/m 0 min 0 min 23 W/m 16,1 km/h (3 Bft) 97,87 %
01.01.2022 15:48 13,9 C 12,8 C 10,0 C 88 % 1023,0 hPa 0,0 l/m 0 min 0 min 22 W/m 9,7 km/h (2 Bft) 55,56 %
01.01.2022 15:50 13,9 C 12,8 C 10,0 C 88 % 1023,0 hPa 0,0 l/m 0 min 0 min 21 W/m 16,1 km/h (3 Bft) 97,87 %
01.01.2022 15:52 13,9 C 12,8 C 10,0 C 88 % 1023,2 hPa 0,0 l/m 0 min 0 min 21 W/m 19,3 km/h (3 Bft) 95,74 %
01.01.2022 15:54 13,9 C 12,8 C 9,4 C 88 % 1023,3 hPa 0,0 l/m 0 min 0 min 19 W/m 6,4 km/h (2 Bft) 97,83 %
01.01.2022 15:56 13,9 C 12,8 C 9,4 C 88 % 1023,3 hPa 0,0 l/m 0 min 0 min 19 W/m 12,9 km/h (3 Bft) 97,87 %
01.01.2022 15:58 13,8 C 12,8 C 9,4 C 88 % 1023,4 hPa 0,0 l/m 0 min 0 min 18 W/m 6,4 km/h (2 Bft) 95,74 %
01.01.2022 16:00 13,8 C 12,8 C 9,4 C 88 % 1023,3 hPa 0,0 l/m 0 min 0 min 18 W/m 12,9 km/h (3 Bft) 97,87 %
01.01.2022 16:02 13,8 C 12,8 C 9,4 C 88 % 1023,3 hPa 0,0 l/m 0 min 0 min 18 W/m 6,4 km/h (2 Bft) 97,87 %
01.01.2022 16:04 13,8 C 12,8 C 9,4 C 88 % 1023,3 hPa 0,0 l/m 0 min 0 min 16 W/m 6,4 km/h (2 Bft) 97,87 %
01.01.2022 16:06 13,7 C 12,8 C 9,4 C 88 % 1023,3 hPa 0,0 l/m 0 min 0 min 17 W/m 12,9 km/h (3 Bft) 95,65 %
01.01.2022 16:08 13,7 C 12,8 C 9,4 C 88 % 1023,3 hPa 0,0 l/m 0 min 0 min 18 W/m 16,1 km/h (3 Bft) 97,87 %
01.01.2022 16:10 13,7 C 12,8 C 9,4 C 88 % 1023,2 hPa 0,0 l/m 0 min 0 min 19 W/m 16,1 km/h (3 Bft) 97,87 %
01.01.2022 16:12 13,7 C 12,8 C 9,4 C 88 % 1023,2 hPa 0,0 l/m 0 min 0 min 18 W/m 22,5 km/h (4 Bft) 97,87 %
01.01.2022 16:14 13,7 C 12,8 C 9,4 C 88 % 1023,2 hPa 0,0 l/m 0 min 0 min 16 W/m 12,9 km/h (3 Bft) 97,87 %
01.01.2022 16:16 13,6 C 12,8 C 9,4 C 88 % 1023,2 hPa 0,0 l/m 0 min 0 min 14 W/m 12,9 km/h (3 Bft) 97,87 %
01.01.2022 16:18 13,6 C 12,8 C 9,4 C 88 % 1023,2 hPa 0,0 l/m 0 min 0 min 13 W/m 12,9 km/h (3 Bft) 97,83 %
01.01.2022 16:20 13,6 C 12,8 C 9,4 C 88 % 1023,2 hPa 0,0 l/m 0 min 0 min 12 W/m 9,7 km/h (2 Bft) 97,87 %
01.01.2022 16:22 13,6 C 12,8 C 9,4 C 88 % 1023,1 hPa 0,0 l/m 0 min 0 min 12 W/m 12,9 km/h (3 Bft) 97,87 %
01.01.2022 16:24 13,6 C 12,2 C 9,4 C 88 % 1023,2 hPa 0,0 l/m 0 min 0 min 11 W/m 12,9 km/h (3 Bft) 97,87 %
01.01.2022 16:26 13,5 C 12,2 C 9,4 C 88 % 1023,1 hPa 0,0 l/m 0 min 0 min 11 W/m 12,9 km/h (3 Bft) 97,87 %
01.01.2022 16:28 13,4 C 12,2 C 9,4 C 88 % 1023,1 hPa 0,0 l/m 0 min 0 min 9 W/m 12,9 km/h (3 Bft) 97,87 %
01.01.2022 16:30 13,4 C 12,2 C 9,4 C 88 % 1023,1 hPa 0,0 l/m 0 min 0 min 8 W/m 12,9 km/h (3 Bft) 95,65 %
01.01.2022 16:32 13,4 C 12,2 C 9,4 C 88 % 1023,1 hPa 0,0 l/m 0 min 0 min 7 W/m 16,1 km/h (3 Bft) 95,74 %
01.01.2022 16:34 13,4 C 12,2 C 8,9 C 88 % 1023,0 hPa 0,0 l/m 0 min 0 min 5 W/m 12,9 km/h (3 Bft) 97,87 %
01.01.2022 16:36 13,3 C 12,2 C 8,9 C 88 % 1023,0 hPa 0,0 l/m 0 min 0 min 5 W/m 16,1 km/h (3 Bft) 97,87 %
01.01.2022 16:38 13,3 C 12,2 C 8,9 C 89 % 1023,0 hPa 0,0 l/m 0 min 0 min 5 W/m 16,1 km/h (3 Bft) 97,87 %
01.01.2022 16:40 13,3 C 12,2 C 8,9 C 89 % 1022,9 hPa 0,0 l/m 0 min 0 min 5 W/m 6,4 km/h (2 Bft) 97,87 %
01.01.2022 16:42 13,2 C 12,2 C 8,9 C 89 % 1023,0 hPa 0,0 l/m 0 min 0 min 2 W/m 12,9 km/h (3 Bft) 97,83 %
01.01.2022 16:44 13,2 C 12,2 C 8,9 C 89 % 1023,0 hPa 0,0 l/m 0 min 0 min 0 W/m 6,4 km/h (2 Bft) 95,74 %
01.01.2022 16:46 13,2 C 12,2 C 8,9 C 89 % 1023,0 hPa 0,0 l/m 0 min 0 min 0 W/m 12,9 km/h (3 Bft) 95,74 %
01.01.2022 16:48 13,2 C 12,2 C 8,9 C 89 % 1023,0 hPa 0,0 l/m 0 min 0 min 0 W/m 16,1 km/h (3 Bft) 95,74 %
01.01.2022 16:50 13,1 C 11,7 C 8,9 C 89 % 1023,1 hPa 0,0 l/m 0 min 0 min 0 W/m 9,7 km/h (2 Bft) 97,87 %
01.01.2022 16:52 13,1 C 11,7 C 8,9 C 89 % 1023,0 hPa 0,0 l/m 0 min 0 min 0 W/m 12,9 km/h (3 Bft) 97,83 %
01.01.2022 16:54 13,1 C 11,7 C 8,9 C 89 % 1022,9 hPa 0,0 l/m 0 min 0 min 0 W/m 12,9 km/h (3 Bft) 97,87 %
01.01.2022 16:56 13,1 C 11,7 C 8,9 C 89 % 1022,9 hPa 0,0 l/m 0 min 0 min 0 W/m 16,1 km/h (3 Bft) 100,00 %
01.01.2022 16:58 13,0 C 11,7 C 8,9 C 89 % 1022,9 hPa 0,0 l/m 0 min 0 min 0 W/m 12,9 km/h (3 Bft) 100,00 %
01.01.2022 17:00 12,9 C 11,7 C 8,9 C 89 % 1022,9 hPa 0,0 l/m 0 min 0 min 0 W/m 6,4 km/h (2 Bft) 100,00 %
01.01.2022 17:02 12,9 C 11,7 C 8,9 C 89 % 1023,0 hPa 0,0 l/m 0 min 0 min 0 W/m 12,9 km/h (3 Bft) 100,00 %
01.01.2022 17:04 12,9 C 11,7 C 8,9 C 90 % 1023,0 hPa 0,0 l/m 0 min 0 min 0 W/m 12,9 km/h (3 Bft) 100,00 %
01.01.2022 17:06 12,8 C 11,7 C 8,9 C 90 % 1023,1 hPa 0,0 l/m 0 min 0 min 0 W/m 12,9 km/h (3 Bft) 100,00 %
01.01.2022 17:08 12,8 C 11,7 C 8,9 C 90 % 1023,0 hPa 0,0 l/m 0 min 0 min 0 W/m 9,7 km/h (2 Bft) 100,00 %
01.01.2022 17:10 12,8 C 11,7 C 8,9 C 90 % 1023,0 hPa 0,0 l/m 0 min 0 min 0 W/m 6,4 km/h (2 Bft) 100,00 %
01.01.2022 17:12 12,7 C 11,7 C 8,9 C 90 % 1023,0 hPa 0,0 l/m 0 min 0 min 0 W/m 12,9 km/h (3 Bft) 100,00 %
01.01.2022 17:14 12,7 C 11,7 C 8,9 C 90 % 1023,0 hPa 0,0 l/m 0 min 0 min 0 W/m 12,9 km/h (3 Bft) 100,00 %
01.01.2022 17:16 12,7 C 11,7 C 8,9 C 90 % 1023,0 hPa 0,0 l/m 0 min 0 min 0 W/m 12,9 km/h (3 Bft) 97,83 %
01.01.2022 17:18 12,6 C 11,7 C 8,3 C 90 % 1022,9 hPa 0,0 l/m 0 min 0 min 0 W/m 16,1 km/h (3 Bft) 100,00 %
01.01.2022 17:20 12,6 C 11,7 C 8,3 C 90 % 1022,9 hPa 0,0 l/m 0 min 0 min 0 W/m 12,9 km/h (3 Bft) 100,00 %
01.01.2022 17:22 12,6 C 11,7 C 8,3 C 90 % 1022,8 hPa 0,0 l/m 0 min 0 min 0 W/m 16,1 km/h (3 Bft) 100,00 %
01.01.2022 17:24 12,5 C 11,7 C 8,3 C 90 % 1022,8 hPa 0,0 l/m 0 min 0 min 0 W/m 16,1 km/h (3 Bft) 100,00 %
01.01.2022 17:26 12,5 C 11,7 C 8,3 C 91 % 1022,7 hPa 0,0 l/m 0 min 0 min 0 W/m 16,1 km/h (3 Bft) 97,87 %
01.01.2022 17:28 12,4 C 11,7 C 8,3 C 91 % 1022,7 hPa 0,0 l/m 0 min 0 min 0 W/m 16,1 km/h (3 Bft) 100,00 %
01.01.2022 17:30 12,4 C 11,7 C 8,3 C 91 % 1022,7 hPa 0,0 l/m 0 min 0 min 0 W/m 16,1 km/h (3 Bft) 97,87 %
01.01.2022 17:32 12,4 C 11,7 C 8,3 C 91 % 1022,6 hPa 0,0 l/m 0 min 0 min 0 W/m 16,1 km/h (3 Bft) 100,00 %
01.01.2022 17:34 12,4 C 11,7 C 8,3 C 91 % 1022,7 hPa 0,0 l/m 0 min 0 min 0 W/m 19,3 km/h (3 Bft) 100,00 %
01.01.2022 17:36 12,3 C 11,7 C 8,3 C 91 % 1022,7 hPa 0,0 l/m 0 min 0 min 0 W/m 16,1 km/h (3 Bft) 100,00 %
01.01.2022 17:38 12,3 C 11,7 C 8,3 C 91 % 1022,5 hPa 0,0 l/m 0 min 0 min 0 W/m 16,1 km/h (3 Bft) 93,62 %
01.01.2022 17:40 12,3 C 11,7 C 8,3 C 91 % 1022,5 hPa 0,0 l/m 0 min 0 min 0 W/m 16,1 km/h (3 Bft) 97,83 %
01.01.2022 17:42 12,3 C 11,1 C 8,3 C 91 % 1022,6 hPa 0,0 l/m 0 min 0 min 0 W/m 16,1 km/h (3 Bft) 95,74 %
01.01.2022 17:44 12,3 C 11,1 C 8,3 C 91 % 1022,5 hPa 0,0 l/m 0 min 0 min 0 W/m 22,5 km/h (4 Bft) 97,87 %
01.01.2022 17:46 12,2 C 11,1 C 8,3 C 91 % 1022,4 hPa 0,0 l/m 0 min 0 min 0 W/m 19,3 km/h (3 Bft) 95,74 %
01.01.2022 17:48 12,2 C 11,1 C 8,3 C 91 % 1022,3 hPa 0,0 l/m 0 min 0 min 0 W/m 19,3 km/h (3 Bft) 95,74 %
01.01.2022 17:50 12,2 C 11,1 C 8,3 C 91 % 1022,3 hPa 0,0 l/m 0 min 0 min 0 W/m 19,3 km/h (3 Bft) 95,74 %
01.01.2022 17:52 12,2 C 11,1 C 8,3 C 91 % 1022,3 hPa 0,0 l/m 0 min 0 min 0 W/m 19,3 km/h (3 Bft) 95,65 %
01.01.2022 17:54 12,2 C 11,1 C 8,3 C 92 % 1022,3 hPa 0,0 l/m 0 min 0 min 0 W/m 19,3 km/h (3 Bft) 95,74 %
01.01.2022 17:56 12,1 C 11,1 C 8,3 C 91 % 1022,2 hPa 0,0 l/m 0 min 0 min 0 W/m 16,1 km/h (3 Bft) 93,62 %
01.01.2022 17:58 12,1 C 11,1 C 8,3 C 91 % 1022,3 hPa 0,0 l/m 0 min 0 min 0 W/m 22,5 km/h (4 Bft) 95,74 %
01.01.2022 18:00 12,1 C 11,1 C 8,3 C 91 % 1022,3 hPa 0,0 l/m 0 min 0 min 0 W/m 22,5 km/h (4 Bft) 95,65 %
01.01.2022 18:02 12,1 C 11,1 C 8,3 C 92 % 1022,2 hPa 0,0 l/m 0 min 0 min 0 W/m 16,1 km/h (3 Bft) 95,74 %
01.01.2022 18:04 12,0 C 11,1 C 8,3 C 92 % 1022,2 hPa 0,0 l/m 0 min 0 min 0 W/m 12,9 km/h (3 Bft) 95,65 %
01.01.2022 18:06 12,0 C 11,1 C 8,3 C 92 % 1022,2 hPa 0,0 l/m 0 min 0 min 0 W/m 16,1 km/h (3 Bft) 91,49 %
01.01.2022 18:08 11,9 C 11,1 C 8,3 C 92 % 1022,1 hPa 0,0 l/m 0 min 0 min 0 W/m 22,5 km/h (4 Bft) 95,74 %
01.01.2022 18:10 11,9 C 11,1 C 8,3 C 92 % 1022,1 hPa 0,0 l/m 0 min 0 min 0 W/m 12,9 km/h (3 Bft) 95,74 %
01.01.2022 18:12 11,9 C 11,1 C 8,3 C 92 % 1022,0 hPa 0,0 l/m 0 min 0 min 0 W/m 16,1 km/h (3 Bft) 100,00 %
01.01.2022 18:14 11,9 C 11,1 C 8,3 C 92 % 1022,0 hPa 0,0 l/m 0 min 0 min 0 W/m 12,9 km/h (3 Bft) 95,74 %
01.01.2022 18:16 11,8 C 11,1 C 8,3 C 92 % 1021,9 hPa 0,0 l/m 0 min 0 min 0 W/m 16,1 km/h (3 Bft) 97,83 %
01.01.2022 18:18 11,8 C 11,1 C 8,3 C 92 % 1021,9 hPa 0,0 l/m 0 min 0 min 0 W/m 19,3 km/h (3 Bft) 95,74 %
01.01.2022 18:20 11,8 C 11,1 C 8,3 C 92 % 1021,7 hPa 0,0 l/m 0 min 0 min 0 W/m 19,3 km/h (3 Bft) 95,74 %
01.01.2022 18:22 11,8 C 11,1 C 8,3 C 92 % 1021,6 hPa 0,0 l/m 0 min 0 min 0 W/m 16,1 km/h (3 Bft) 97,87 %
01.01.2022 18:24 11,8 C 11,1 C 8,3 C 92 % 1021,7 hPa 0,0 l/m 0 min 0 min 0 W/m 16,1 km/h (3 Bft) 97,87 %
01.01.2022 18:26 11,7 C 11,1 C 8,3 C 92 % 1021,6 hPa 0,0 l/m 0 min 0 min 0 W/m 12,9 km/h (3 Bft) 97,87 %
01.01.2022 18:28 11,7 C 11,1 C 8,3 C 92 % 1021,7 hPa 0,0 l/m 0 min 0 min 0 W/m 19,3 km/h (3 Bft) 97,83 %
01.01.2022 18:30 11,7 C 11,1 C 8,3 C 92 % 1021,7 hPa 0,0 l/m 0 min 0 min 0 W/m 25,7 km/h (4 Bft) 97,87 %
01.01.2022 18:32 11,7 C 11,1 C 8,3 C 92 % 1021,7 hPa 0,0 l/m 0 min 0 min 0 W/m 19,3 km/h (3 Bft) 97,87 %
01.01.2022 18:34 11,7 C 11,1 C 8,3 C 92 % 1021,7 hPa 0,0 l/m 0 min 0 min 0 W/m 22,5 km/h (4 Bft) 97,87 %
01.01.2022 18:36 11,7 C 11,1 C 8,3 C 92 % 1021,7 hPa 0,0 l/m 0 min 0 min 0 W/m 19,3 km/h (3 Bft) 97,87 %
01.01.2022 18:38 11,7 C 11,1 C 8,3 C 92 % 1021,7 hPa 0,0 l/m 0 min 0 min 0 W/m 22,5 km/h (4 Bft) 97,87 %
01.01.2022 18:40 11,7 C 11,1 C 8,3 C 92 % 1021,7 hPa 0,0 l/m 0 min 0 min 0 W/m 16,1 km/h (3 Bft) 100,00 %
01.01.2022 18:42 11,7 C 11,1 C 8,3 C 92 % 1021,7 hPa 0,0 l/m 0 min 0 min 0 W/m 16,1 km/h (3 Bft) 100,00 %
01.01.2022 18:44 11,7 C 11,1 C 8,3 C 92 % 1021,7 hPa 0,0 l/m 0 min 0 min 0 W/m 22,5 km/h (4 Bft) 97,87 %
01.01.2022 18:46 11,7 C 11,1 C 8,3 C 93 % 1021,8 hPa 0,0 l/m 0 min 0 min 0 W/m 12,9 km/h (3 Bft) 100,00 %
01.01.2022 18:48 11,7 C 11,1 C 8,3 C 92 % 1021,7 hPa 0,0 l/m 0 min 0 min 0 W/m 12,9 km/h (3 Bft) 97,87 %
01.01.2022 18:50 11,7 C 11,1 C 8,3 C 92 % 1021,7 hPa 0,0 l/m 0 min 0 min 0 W/m 16,1 km/h (3 Bft) 97,87 %
01.01.2022 18:52 11,7 C 11,1 C 8,3 C 93 % 1021,8 hPa 0,0 l/m 0 min 0 min 0 W/m 19,3 km/h (3 Bft) 97,83 %
01.01.2022 18:54 11,7 C 11,1 C 8,3 C 93 % 1021,8 hPa 0,0 l/m 0 min 0 min 0 W/m 22,5 km/h (4 Bft) 97,87 %
01.01.2022 18:56 11,7 C 11,1 C 8,3 C 93 % 1021,9 hPa 0,0 l/m 0 min 0 min 0 W/m 12,9 km/h (3 Bft) 97,87 %
01.01.2022 18:58 11,7 C 10,6 C 8,3 C 93 % 1022,0 hPa 0,0 l/m 0 min 0 min 0 W/m 12,9 km/h (3 Bft) 97,87 %
01.01.2022 19:00 11,7 C 10,6 C 8,3 C 93 % 1022,0 hPa 0,0 l/m 0 min 0 min 0 W/m 22,5 km/h (4 Bft) 97,87 %
01.01.2022 19:02 11,7 C 11,1 C 8,3 C 93 % 1021,9 hPa 0,0 l/m 0 min 0 min 0 W/m 22,5 km/h (4 Bft) 97,83 %
01.01.2022 19:04 11,7 C 11,1 C 8,3 C 93 % 1021,9 hPa 0,0 l/m 0 min 0 min 0 W/m 16,1 km/h (3 Bft) 97,87 %
01.01.2022 19:06 11,7 C 11,1 C 8,3 C 93 % 1021,9 hPa 0,0 l/m 0 min 0 min 0 W/m 22,5 km/h (4 Bft) 97,87 %
01.01.2022 19:08 11,7 C 11,1 C 8,3 C 93 % 1021,8 hPa 0,0 l/m 0 min 0 min 0 W/m 16,1 km/h (3 Bft) 97,87 %
01.01.2022 19:10 11,7 C 10,6 C 8,3 C 93 % 1021,7 hPa 0,0 l/m 0 min 0 min 0 W/m 19,3 km/h (3 Bft) 97,87 %
01.01.2022 19:12 11,6 C 10,6 C 7,8 C 93 % 1021,6 hPa 0,0 l/m 0 min 0 min 0 W/m 19,3 km/h (3 Bft) 97,87 %
01.01.2022 19:14 11,6 C 10,6 C 7,8 C 93 % 1021,6 hPa 0,0 l/m 0 min 0 min 0 W/m 12,9 km/h (3 Bft) 97,87 %
01.01.2022 19:16 11,6 C 10,6 C 7,8 C 93 % 1021,6 hPa 0,0 l/m 0 min 0 min 0 W/m 12,9 km/h (3 Bft) 97,83 %
01.01.2022 19:18 11,6 C 10,6 C 7,8 C 93 % 1021,6 hPa 0,0 l/m 0 min 0 min 0 W/m 22,5 km/h (4 Bft) 95,74 %
01.01.2022 19:20 11,6 C 10,6 C 7,8 C 93 % 1021,5 hPa 0,0 l/m 0 min 0 min 0 W/m 25,7 km/h (4 Bft) 97,87 %
01.01.2022 19:22 11,6 C 10,6 C 7,8 C 93 % 1021,5 hPa 0,0 l/m 0 min 0 min 0 W/m 22,5 km/h (4 Bft) 95,74 %
01.01.2022 19:24 11,6 C 10,6 C 7,8 C 93 % 1021,5 hPa 0,0 l/m 0 min 0 min 0 W/m 22,5 km/h (4 Bft) 97,87 %
01.01.2022 19:26 11,6 C 10,6 C 7,8 C 93 % 1021,5 hPa 0,0 l/m 0 min 0 min 0 W/m 22,5 km/h (4 Bft) 95,65 %
01.01.2022 19:28 11,5 C 10,6 C 7,8 C 93 % 1021,4 hPa 0,0 l/m 0 min 0 min 0 W/m 22,5 km/h (4 Bft) 97,87 %
01.01.2022 19:30 11,5 C 10,6 C 7,8 C 93 % 1021,4 hPa 0,0 l/m 0 min 0 min 0 W/m 22,5 km/h (4 Bft) 97,87 %
01.01.2022 19:32 11,5 C 10,6 C 7,8 C 93 % 1021,3 hPa 0,0 l/m 0 min 0 min 0 W/m 22,5 km/h (4 Bft) 95,74 %
01.01.2022 19:34 11,5 C 10,6 C 7,8 C 93 % 1021,3 hPa 0,0 l/m 0 min 0 min 0 W/m 22,5 km/h (4 Bft) 93,62 %
01.01.2022 19:36 11,4 C 10,6 C 7,8 C 93 % 1021,5 hPa 0,0 l/m 0 min 0 min 0 W/m 19,3 km/h (3 Bft) 97,87 %
01.01.2022 19:38 11,4 C 10,6 C 7,8 C 93 % 1021,4 hPa 0,0 l/m 0 min 0 min 0 W/m 25,7 km/h (4 Bft) 100,00 %
01.01.2022 19:40 11,4 C 10,6 C 7,8 C 93 % 1021,3 hPa 0,0 l/m 0 min 0 min 0 W/m 19,3 km/h (3 Bft) 97,87 %
01.01.2022 19:42 11,4 C 10,6 C 7,8 C 93 % 1021,2 hPa 0,0 l/m 0 min 0 min 0 W/m 22,5 km/h (4 Bft) 95,74 %
01.01.2022 19:44 11,4 C 10,6 C 7,8 C 93 % 1021,2 hPa 0,0 l/m 0 min 0 min 0 W/m 19,3 km/h (3 Bft) 97,87 %
01.01.2022 19:46 11,3 C 10,6 C 7,8 C 93 % 1021,1 hPa 0,0 l/m 0 min 0 min 0 W/m 22,5 km/h (4 Bft) 97,87 %
01.01.2022 19:48 11,3 C 10,6 C 7,8 C 93 % 1021,0 hPa 0,0 l/m 0 min 0 min 0 W/m 19,3 km/h (3 Bft) 97,87 %
01.01.2022 19:50 11,3 C 10,6 C 7,8 C 93 % 1021,0 hPa 0,0 l/m 0 min 0 min 0 W/m 16,1 km/h (3 Bft) 97,83 %
01.01.2022 19:52 11,3 C 10,6 C 7,8 C 93 % 1021,1 hPa 0,0 l/m 0 min 0 min 0 W/m 16,1 km/h (3 Bft) 97,87 %
01.01.2022 19:54 11,3 C 10,6 C 7,8 C 93 % 1021,2 hPa 0,0 l/m 0 min 0 min 0 W/m 12,9 km/h (3 Bft) 95,74 %
01.01.2022 19:56 11,2 C 10,6 C 7,8 C 93 % 1021,3 hPa 0,0 l/m 0 min 0 min 0 W/m 19,3 km/h (3 Bft) 97,87 %
01.01.2022 19:58 11,2 C 10,6 C 7,8 C 94 % 1021,3 hPa 0,0 l/m 0 min 0 min 0 W/m 19,3 km/h (3 Bft) 97,87 %
01.01.2022 20:00 11,2 C 10,6 C 7,8 C 94 % 1021,1 hPa 0,0 l/m 0 min 0 min 0 W/m 16,1 km/h (3 Bft) 97,87 %
01.01.2022 20:02 11,2 C 10,6 C 7,8 C 94 % 1021,1 hPa 0,0 l/m 0 min 0 min 0 W/m 22,5 km/h (4 Bft) 97,83 %
01.01.2022 20:04 11,2 C 10,6 C 7,8 C 94 % 1021,1 hPa 0,0 l/m 0 min 0 min 0 W/m 22,5 km/h (4 Bft) 95,74 %
01.01.2022 20:06 11,2 C 10,6 C 7,8 C 94 % 1021,3 hPa 0,0 l/m 0 min 0 min 0 W/m 16,1 km/h (3 Bft) 100,00 %
01.01.2022 20:08 11,2 C 10,6 C 7,8 C 94 % 1021,3 hPa 0,0 l/m 0 min 0 min 0 W/m 19,3 km/h (3 Bft) 100,00 %
01.01.2022 20:10 11,2 C 10,6 C 7,8 C 94 % 1021,4 hPa 0,0 l/m 0 min 0 min 0 W/m 19,3 km/h (3 Bft) 100,00 %
01.01.2022 20:12 11,2 C 10,6 C 7,8 C 94 % 1021,4 hPa 0,0 l/m 0 min 0 min 0 W/m 19,3 km/h (3 Bft) 100,00 %
01.01.2022 20:14 11,2 C 10,6 C 7,8 C 94 % 1021,5 hPa 0,0 l/m 0 min 0 min 0 W/m 19,3 km/h (3 Bft) 100,00 %
01.01.2022 20:16 11,2 C 10,6 C 7,8 C 94 % 1021,5 hPa 0,0 l/m 0 min 0 min 0 W/m 16,1 km/h (3 Bft) 100,00 %
01.01.2022 20:18 11,2 C 10,6 C 7,8 C 94 % 1021,4 hPa 0,0 l/m 0 min 0 min 0 W/m 12,9 km/h (3 Bft) 100,00 %
01.01.2022 20:20 11,2 C 10,6 C 7,8 C 94 % 1021,4 hPa 0,0 l/m 0 min 0 min 0 W/m 16,1 km/h (3 Bft) 100,00 %
01.01.2022 20:22 11,1 C 10,6 C 7,8 C 94 % 1021,4 hPa 0,0 l/m 0 min 0 min 0 W/m 12,9 km/h (3 Bft) 100,00 %
01.01.2022 20:24 11,1 C 10,6 C 7,8 C 94 % 1021,4 hPa 0,0 l/m 0 min 0 min 0 W/m 16,1 km/h (3 Bft) 100,00 %
01.01.2022 20:26 11,1 C 10,6 C 7,8 C 94 % 1021,4 hPa 0,0 l/m 0 min 0 min 0 W/m 19,3 km/h (3 Bft) 97,83 %
01.01.2022 20:28 11,1 C 10,6 C 7,8 C 94 % 1021,4 hPa 0,0 l/m 0 min 0 min 0 W/m 12,9 km/h (3 Bft) 100,00 %
01.01.2022 20:30 11,1 C 10,6 C 7,8 C 94 % 1021,3 hPa 0,0 l/m 0 min 0 min 0 W/m 19,3 km/h (3 Bft) 100,00 %
01.01.2022 20:32 11,1 C 10,0 C 7,8 C 94 % 1021,3 hPa 0,0 l/m 0 min 0 min 0 W/m 16,1 km/h (3 Bft) 100,00 %
01.01.2022 20:34 11,1 C 10,0 C 7,8 C 94 % 1021,3 hPa 0,0 l/m 0 min 0 min 0 W/m 22,5 km/h (4 Bft) 100,00 %
01.01.2022 20:36 11,1 C 10,0 C 7,8 C 94 % 1021,3 hPa 0,0 l/m 0 min 0 min 0 W/m 19,3 km/h (3 Bft) 97,87 %
01.01.2022 20:38 11,1 C 10,0 C 7,8 C 94 % 1021,3 hPa 0,0 l/m 0 min 0 min 0 W/m 19,3 km/h (3 Bft) 97,83 %
01.01.2022 20:40 11,1 C 10,0 C 7,8 C 94 % 1021,2 hPa 0,0 l/m 0 min 0 min 0 W/m 22,5 km/h (4 Bft) 98,00 %
01.01.2022 20:42 11,0 C 10,0 C 7,8 C 94 % 1021,3 hPa 0,0 l/m 0 min 0 min 0 W/m 19,3 km/h (3 Bft) 97,87 %
01.01.2022 20:44 11,0 C 10,0 C 7,8 C 94 % 1021,2 hPa 0,0 l/m 0 min 0 min 0 W/m 12,9 km/h (3 Bft) 97,87 %
01.01.2022 20:46 11,0 C 10,0 C 7,8 C 94 % 1021,2 hPa 0,0 l/m 0 min 0 min 0 W/m 22,5 km/h (4 Bft) 95,74 %
01.01.2022 20:48 10,9 C 10,0 C 7,8 C 94 % 1021,1 hPa 0,0 l/m 0 min 0 min 0 W/m 16,1 km/h (3 Bft) 97,83 %
01.01.2022 20:50 10,9 C 10,0 C 7,8 C 94 % 1021,1 hPa 0,0 l/m 0 min 0 min 0 W/m 16,1 km/h (3 Bft) 97,87 %
01.01.2022 20:52 10,9 C 10,0 C 7,8 C 94 % 1021,1 hPa 0,0 l/m 0 min 0 min 0 W/m 22,5 km/h (4 Bft) 95,74 %
01.01.2022 20:54 10,9 C 10,0 C 7,8 C 94 % 1021,1 hPa 0,0 l/m 0 min 0 min 0 W/m 19,3 km/h (3 Bft) 97,87 %
01.01.2022 20:56 10,9 C 10,0 C 7,8 C 94 % 1021,0 hPa 0,0 l/m 0 min 0 min 0 W/m 19,3 km/h (3 Bft) 97,87 %
01.01.2022 20:58 10,9 C 10,0 C 7,8 C 94 % 1021,0 hPa 0,0 l/m 0 min 0 min 0 W/m 22,5 km/h (4 Bft) 97,87 %
01.01.2022 21:00 10,8 C 10,0 C 7,8 C 95 % 1021,0 hPa 0,0 l/m 0 min 0 min 0 W/m 19,3 km/h (3 Bft) 97,83 %
01.01.2022 21:02 10,8 C 10,0 C 7,8 C 95 % 1021,2 hPa 0,0 l/m 0 min 0 min 0 W/m 19,3 km/h (3 Bft) 97,87 %
01.01.2022 21:04 10,8 C 10,0 C 7,8 C 95 % 1021,0 hPa 0,0 l/m 0 min 0 min 0 W/m 12,9 km/h (3 Bft) 97,87 %
01.01.2022 21:06 10,8 C 10,0 C 7,8 C 95 % 1021,0 hPa 0,0 l/m 0 min 0 min 0 W/m 12,9 km/h (3 Bft) 97,87 %
01.01.2022 21:08 10,8 C 10,0 C 7,8 C 95 % 1021,0 hPa 0,0 l/m 0 min 0 min 0 W/m 19,3 km/h (3 Bft) 97,87 %
01.01.2022 21:10 10,8 C 10,0 C 7,8 C 95 % 1021,0 hPa 0,0 l/m 0 min 0 min 0 W/m 19,3 km/h (3 Bft) 93,62 %
01.01.2022 21:12 10,8 C 10,0 C 7,8 C 95 % 1021,0 hPa 0,0 l/m 0 min 0 min 0 W/m 19,3 km/h (3 Bft) 97,83 %
01.01.2022 21:14 10,8 C 10,0 C 7,8 C 95 % 1021,0 hPa 0,0 l/m 0 min 0 min 0 W/m 16,1 km/h (3 Bft) 97,87 %
01.01.2022 21:16 10,8 C 10,0 C 7,8 C 95 % 1021,0 hPa 0,0 l/m 0 min 0 min 0 W/m 12,9 km/h (3 Bft) 97,87 %
01.01.2022 21:18 10,8 C 10,0 C 7,8 C 95 % 1021,0 hPa 0,0 l/m 0 min 0 min 0 W/m 16,1 km/h (3 Bft) 97,87 %
01.01.2022 21:20 10,8 C 10,0 C 7,8 C 95 % 1021,0 hPa 0,0 l/m 0 min 0 min 0 W/m 19,3 km/h (3 Bft) 95,74 %
01.01.2022 21:22 10,8 C 10,0 C 7,8 C 95 % 1021,0 hPa 0,0 l/m 0 min 0 min 0 W/m 16,1 km/h (3 Bft) 97,87 %
01.01.2022 21:24 10,8 C 10,0 C 7,8 C 95 % 1021,0 hPa 0,0 l/m 0 min 0 min 0 W/m 6,4 km/h (2 Bft) 93,48 %
01.01.2022 21:26 10,8 C 10,0 C 7,8 C 95 % 1020,9 hPa 0,0 l/m 0 min 0 min 0 W/m 19,3 km/h (3 Bft) 100,00 %
01.01.2022 21:28 10,8 C 10,0 C 7,8 C 95 % 1020,9 hPa 0,0 l/m 0 min 0 min 0 W/m 16,1 km/h (3 Bft) 95,74 %
01.01.2022 21:30 10,8 C 10,0 C 7,8 C 95 % 1020,9 hPa 0,0 l/m 0 min 0 min 0 W/m 16,1 km/h (3 Bft) 93,62 %
01.01.2022 21:32 10,8 C 10,0 C 7,8 C 95 % 1020,8 hPa 0,0 l/m 0 min 0 min 0 W/m 16,1 km/h (3 Bft) 95,74 %
01.01.2022 21:34 10,8 C 10,0 C 7,8 C 95 % 1020,7 hPa 0,0 l/m 0 min 0 min 0 W/m 16,1 km/h (3 Bft) 95,74 %
01.01.2022 21:36 10,8 C 10,0 C 7,8 C 95 % 1020,8 hPa 0,0 l/m 0 min 0 min 0 W/m 19,3 km/h (3 Bft) 95,65 %
01.01.2022 21:38 10,8 C 10,0 C 7,8 C 95 % 1020,8 hPa 0,0 l/m 0 min 0 min 0 W/m 22,5 km/h (4 Bft) 93,62 %
01.01.2022 21:40 10,8 C 10,0 C 7,8 C 95 % 1020,7 hPa 0,0 l/m 0 min 0 min 0 W/m 12,9 km/h (3 Bft) 95,74 %
01.01.2022 21:42 10,8 C 10,0 C 7,8 C 95 % 1020,6 hPa 0,0 l/m 0 min 0 min 0 W/m 22,5 km/h (4 Bft) 95,74 %
01.01.2022 21:44 10,8 C 10,0 C 7,8 C 95 % 1020,5 hPa 0,0 l/m 0 min 0 min 0 W/m 12,9 km/h (3 Bft) 95,74 %
01.01.2022 21:46 10,8 C 10,0 C 7,8 C 95 % 1020,4 hPa 0,0 l/m 0 min 0 min 0 W/m 16,1 km/h (3 Bft) 95,74 %
01.01.2022 21:48 10,8 C 10,0 C 7,8 C 95 % 1020,4 hPa 0,0 l/m 0 min 0 min 0 W/m 19,3 km/h (3 Bft) 95,65 %
01.01.2022 21:50 10,8 C 10,0 C 7,8 C 95 % 1020,4 hPa 0,0 l/m 0 min 0 min 0 W/m 22,5 km/h (4 Bft) 95,74 %
01.01.2022 21:52 10,8 C 10,0 C 7,8 C 95 % 1020,3 hPa 0,0 l/m 0 min 0 min 0 W/m 25,7 km/h (4 Bft) 95,74 %
01.01.2022 21:54 10,8 C 10,0 C 7,8 C 95 % 1020,3 hPa 0,0 l/m 0 min 0 min 0 W/m 19,3 km/h (3 Bft) 95,74 %
01.01.2022 21:56 10,8 C 10,0 C 7,8 C 95 % 1020,4 hPa 0,0 l/m 0 min 0 min 0 W/m 22,5 km/h (4 Bft) 95,74 %
01.01.2022 21:58 10,8 C 10,0 C 7,8 C 95 % 1020,3 hPa 0,0 l/m 0 min 0 min 0 W/m 16,1 km/h (3 Bft) 95,74 %
01.01.2022 22:00 10,8 C 10,0 C 7,8 C 95 % 1020,3 hPa 0,0 l/m 0 min 0 min 0 W/m 16,1 km/h (3 Bft) 95,65 %
01.01.2022 22:02 10,8 C 10,0 C 7,8 C 95 % 1020,3 hPa 0,0 l/m 0 min 0 min 0 W/m 22,5 km/h (4 Bft) 95,74 %
01.01.2022 22:04 10,8 C 10,0 C 7,8 C 95 % 1020,4 hPa 0,0 l/m 0 min 0 min 0 W/m 19,3 km/h (3 Bft) 97,87 %
01.01.2022 22:06 10,8 C 10,0 C 7,8 C 95 % 1020,3 hPa 0,0 l/m 0 min 0 min 0 W/m 16,1 km/h (3 Bft) 97,87 %
01.01.2022 22:08 10,8 C 10,0 C 7,8 C 95 % 1020,2 hPa 0,0 l/m 0 min 0 min 0 W/m 25,7 km/h (4 Bft) 97,87 %
01.01.2022 22:10 10,8 C 10,0 C 7,8 C 95 % 1020,1 hPa 0,0 l/m 0 min 0 min 0 W/m 16,1 km/h (3 Bft) 97,30 %
01.01.2022 22:12 10,8 C 10,0 C 7,8 C 95 % 1020,1 hPa 0,0 l/m 0 min 0 min 0 W/m 16,1 km/h (3 Bft) 97,87 %
01.01.2022 22:14 10,8 C 10,0 C 7,8 C 95 % 1020,1 hPa 0,0 l/m 0 min 0 min 0 W/m 16,1 km/h (3 Bft) 97,87 %
01.01.2022 22:16 10,8 C 10,0 C 7,8 C 95 % 1020,1 hPa 0,0 l/m 0 min 0 min 0 W/m 19,3 km/h (3 Bft) 97,83 %
01.01.2022 22:18 10,8 C 10,0 C 7,8 C 95 % 1020,1 hPa 0,0 l/m 0 min 0 min 0 W/m 16,1 km/h (3 Bft) 100,00 %
01.01.2022 22:20 10,7 C 10,0 C 7,8 C 95 % 1020,3 hPa 0,0 l/m 0 min 0 min 0 W/m 12,9 km/h (3 Bft) 100,00 %
01.01.2022 22:22 10,7 C 10,0 C 7,2 C 95 % 1020,4 hPa 0,0 l/m 0 min 0 min 0 W/m 12,9 km/h (3 Bft) 100,00 %
01.01.2022 22:24 10,7 C 10,0 C 7,2 C 95 % 1020,3 hPa 0,0 l/m 0 min 0 min 0 W/m 19,3 km/h (3 Bft) 100,00 %
01.01.2022 22:26 10,7 C 10,0 C 7,8 C 95 % 1020,3 hPa 0,0 l/m 0 min 0 min 0 W/m 16,1 km/h (3 Bft) 100,00 %
01.01.2022 22:28 10,7 C 10,0 C 7,8 C 95 % 1020,3 hPa 0,0 l/m 0 min 0 min 0 W/m 12,9 km/h (3 Bft) 100,00 %
01.01.2022 22:30 10,7 C 10,0 C 7,2 C 95 % 1020,4 hPa 0,0 l/m 0 min 0 min 0 W/m 12,9 km/h (3 Bft) 100,00 %
01.01.2022 22:32 10,7 C 10,0 C 7,2 C 95 % 1020,3 hPa 0,0 l/m 0 min 0 min 0 W/m 6,4 km/h (2 Bft) 100,00 %
01.01.2022 22:34 10,7 C 10,0 C 7,2 C 95 % 1020,3 hPa 0,0 l/m 0 min 0 min 0 W/m 19,3 km/h (3 Bft) 100,00 %
01.01.2022 22:36 10,7 C 10,0 C 7,2 C 95 % 1020,3 hPa 0,0 l/m 0 min 0 min 0 W/m 16,1 km/h (3 Bft) 100,00 %
01.01.2022 22:38 10,7 C 10,0 C 7,2 C 95 % 1020,4 hPa 0,0 l/m 0 min 0 min 0 W/m 16,1 km/h (3 Bft) 100,00 %
01.01.2022 22:40 10,6 C 10,0 C 7,2 C 95 % 1020,5 hPa 0,0 l/m 0 min 0 min 0 W/m 12,9 km/h (3 Bft) 100,00 %
01.01.2022 22:42 10,6 C 10,0 C 7,2 C 95 % 1020,5 hPa 0,0 l/m 0 min 0 min 0 W/m 16,1 km/h (3 Bft) 100,00 %
01.01.2022 22:44 10,6 C 10,0 C 7,2 C 95 % 1020,4 hPa 0,0 l/m 0 min 0 min 0 W/m 16,1 km/h (3 Bft) 100,00 %
01.01.2022 22:46 10,6 C 10,0 C 7,2 C 95 % 1020,3 hPa 0,0 l/m 0 min 0 min 0 W/m 16,1 km/h (3 Bft) 97,87 %
01.01.2022 22:48 10,6 C 10,0 C 7,2 C 95 % 1020,3 hPa 0,0 l/m 0 min 0 min 0 W/m 16,1 km/h (3 Bft) 100,00 %
01.01.2022 22:50 10,6 C 10,0 C 7,2 C 95 % 1020,2 hPa 0,0 l/m 0 min 0 min 0 W/m 9,7 km/h (2 Bft) 100,00 %
01.01.2022 22:52 10,6 C 10,0 C 7,2 C 95 % 1020,1 hPa 0,0 l/m 0 min 0 min 0 W/m 19,3 km/h (3 Bft) 97,83 %
01.01.2022 22:54 10,6 C 10,0 C 7,2 C 95 % 1020,0 hPa 0,0 l/m 0 min 0 min 0 W/m 16,1 km/h (3 Bft) 100,00 %
01.01.2022 22:56 10,6 C 9,4 C 7,2 C 95 % 1019,9 hPa 0,0 l/m 0 min 0 min 0 W/m 19,3 km/h (3 Bft) 100,00 %
01.01.2022 22:58 10,6 C 10,0 C 7,2 C 95 % 1019,9 hPa 0,0 l/m 0 min 0 min 0 W/m 19,3 km/h (3 Bft) 100,00 %
01.01.2022 23:00 10,6 C 10,0 C 7,2 C 95 % 1019,9 hPa 0,0 l/m 0 min 0 min 0 W/m 19,3 km/h (3 Bft) 100,00 %
01.01.2022 23:02 10,5 C 10,0 C 7,2 C 95 % 1019,7 hPa 0,0 l/m 0 min 0 min 0 W/m 19,3 km/h (3 Bft) 100,00 %
01.01.2022 23:04 10,5 C 10,0 C 7,2 C 95 % 1019,8 hPa 0,0 l/m 0 min 0 min 0 W/m 22,5 km/h (4 Bft) 100,00 %
01.01.2022 23:06 10,5 C 10,0 C 7,2 C 95 % 1019,7 hPa 0,0 l/m 0 min 0 min 0 W/m 22,5 km/h (4 Bft) 100,00 %
01.01.2022 23:08 10,5 C 10,0 C 7,2 C 95 % 1019,7 hPa 0,0 l/m 0 min 0 min 0 W/m 19,3 km/h (3 Bft) 100,00 %
01.01.2022 23:10 10,4 C 9,4 C 7,2 C 95 % 1019,7 hPa 0,0 l/m 0 min 0 min 0 W/m 19,3 km/h (3 Bft) 100,00 %
01.01.2022 23:12 10,4 C 9,4 C 7,2 C 95 % 1019,7 hPa 0,0 l/m 0 min 0 min 0 W/m 12,9 km/h (3 Bft) 100,00 %
01.01.2022 23:14 10,4 C 9,4 C 7,2 C 95 % 1019,7 hPa 0,0 l/m 0 min 0 min 0 W/m 19,3 km/h (3 Bft) 100,00 %
01.01.2022 23:16 10,4 C 9,4 C 7,2 C 95 % 1019,7 hPa 0,0 l/m 0 min 0 min 0 W/m 12,9 km/h (3 Bft) 100,00 %
01.01.2022 23:18 10,4 C 9,4 C 7,2 C 95 % 1019,6 hPa 0,0 l/m 0 min 0 min 0 W/m 19,3 km/h (3 Bft) 97,87 %
01.01.2022 23:20 10,4 C 9,4 C 7,2 C 95 % 1019,6 hPa 0,0 l/m 0 min 0 min 0 W/m 19,3 km/h (3 Bft) 100,00 %
01.01.2022 23:22 10,4 C 9,4 C 7,2 C 95 % 1019,5 hPa 0,0 l/m 0 min 0 min 0 W/m 22,5 km/h (4 Bft) 95,74 %
01.01.2022 23:24 10,4 C 9,4 C 7,2 C 95 % 1019,5 hPa 0,0 l/m 0 min 0 min 0 W/m 22,5 km/h (4 Bft) 100,00 %
01.01.2022 23:26 10,4 C 9,4 C 7,2 C 95 % 1019,3 hPa 0,0 l/m 0 min 0 min 0 W/m 16,1 km/h (3 Bft) 95,74 %
01.01.2022 23:28 10,4 C 9,4 C 7,2 C 95 % 1019,3 hPa 0,0 l/m 0 min 0 min 0 W/m 19,3 km/h (3 Bft) 97,83 %
01.01.2022 23:30 10,4 C 9,4 C 7,2 C 95 % 1019,3 hPa 0,0 l/m 0 min 0 min 0 W/m 16,1 km/h (3 Bft) 97,87 %
01.01.2022 23:32 10,4 C 9,4 C 7,2 C 95 % 1019,4 hPa 0,0 l/m 0 min 0 min 0 W/m 19,3 km/h (3 Bft) 93,62 %
01.01.2022 23:34 10,4 C 9,4 C 7,2 C 95 % 1019,5 hPa 0,0 l/m 0 min 0 min 0 W/m 16,1 km/h (3 Bft) 95,74 %
01.01.2022 23:36 10,4 C 9,4 C 7,2 C 95 % 1019,5 hPa 0,0 l/m 0 min 0 min 0 W/m 12,9 km/h (3 Bft) 95,74 %
01.01.2022 23:38 10,4 C 9,4 C 7,2 C 95 % 1019,6 hPa 0,0 l/m 0 min 0 min 0 W/m 16,1 km/h (3 Bft) 95,74 %
01.01.2022 23:40 10,4 C 9,4 C 7,2 C 95 % 1019,6 hPa 0,0 l/m 0 min 0 min 0 W/m 16,1 km/h (3 Bft) 95,65 %
01.01.2022 23:42 10,3 C 9,4 C 7,2 C 95 % 1019,6 hPa 0,0 l/m 0 min 0 min 0 W/m 12,9 km/h (3 Bft) 95,74 %
01.01.2022 23:44 10,4 C 9,4 C 7,2 C 95 % 1019,5 hPa 0,0 l/m 0 min 0 min 0 W/m 12,9 km/h (3 Bft) 91,49 %
01.01.2022 23:46 10,4 C 9,4 C 7,2 C 95 % 1019,6 hPa 0,0 l/m 0 min 0 min 0 W/m 16,1 km/h (3 Bft) 95,74 %
01.01.2022 23:48 10,3 C 9,4 C 7,2 C 95 % 1019,7 hPa 0,0 l/m 0 min 0 min 0 W/m 16,1 km/h (3 Bft) 93,62 %
01.01.2022 23:50 10,4 C 9,4 C 7,2 C 95 % 1019,7 hPa 0,0 l/m 0 min 0 min 0 W/m 16,1 km/h (3 Bft) 92,45 %
01.01.2022 23:52 10,3 C 9,4 C 7,2 C 95 % 1019,6 hPa 0,0 l/m 0 min 0 min 0 W/m 16,1 km/h (3 Bft) 96,00 %
01.01.2022 23:54 10,3 C 9,4 C 7,2 C 95 % 1019,6 hPa 0,0 l/m 0 min 0 min 0 W/m 9,7 km/h (2 Bft) 95,74 %
01.01.2022 23:56 10,3 C 9,4 C 7,2 C 95 % 1019,7 hPa 0,0 l/m 0 min 0 min 0 W/m 16,1 km/h (3 Bft) 93,62 %
01.01.2022 23:58 10,3 C 9,4 C 7,2 C 95 % 1019,7 hPa 0,0 l/m 0 min 0 min 0 W/m 12,9 km/h (3 Bft) 97,30 %
_ Min-Zeit 23:42 22:56 22:22 13:22 23:26 - - - - 02:30 03:04
Minimum _ 10,3 C 9,4 C 7,2 C 82 % 1019,3 hPa - - - - 3,2 km/h (1 Bft) 53,49 %
_ Max-Zeit 13:20 13:20 12:58 21:00 10:56 00:00 10:22 00:00 13:00 18:30 00:00
Maximum _ 15,4 C 20,0 C 11,1 C 95 % 1025,3 hPa 0,0 l/m 2 min 0 min 296 W/m 25,7 km/h
S (4 Bft)
100,00 %
Durchschnitt _ 12,7 C 12,3 C 9,1 C 90 % 1023,2 hPa #0,0 l/m #2:08 h #0 min. 95 W/m 14,1 km/h (3 Bft) 97,51 %
© 2022 W. Hausmann